Time,TemperatureF,DewpointF,PressureIn,WindDirection,WindDirectionDegrees,WindSpeedMPH,WindSpeedGustMPH,Humidity,HourlyPrecipIn,Conditions,Clouds,dailyrainin,SoftwareType,DateUTC
2013-03-04 00:01:00,14.6,11.2,30.01,ENE,59,0.0,0.0,86,0.00,,---,0.00,VWS V14.01,2013-03-04 06:01:00,
2013-03-04 00:02:00,14.6,11.2,30.01,ENE,59,0.0,0.0,86,0.00,,---,0.00,VWS V14.01,2013-03-04 06:02:00,
2013-03-04 00:04:00,14.6,11.2,30.01,ENE,59,0.0,0.0,86,0.00,,---,0.00,VWS V14.01,2013-03-04 06:04:00,
2013-03-04 00:06:00,14.4,11.0,30.01,ENE,59,0.0,0.0,86,0.00,,---,0.00,VWS V14.01,2013-03-04 06:06:00,
2013-03-04 00:07:00,14.4,11.0,30.01,ENE,59,0.0,0.0,86,0.00,,---,0.00,VWS V14.01,2013-03-04 06:07:00,
2013-03-04 00:09:00,14.4,11.0,30.01,ENE,59,0.0,0.0,86,0.00,,---,0.00,VWS V14.01,2013-03-04 06:09:00,
2013-03-04 00:11:00,14.4,11.2,30.01,ENE,58,0.0,0.0,87,0.00,,---,0.00,VWS V14.01,2013-03-04 06:11:00,
2013-03-04 00:12:00,14.4,11.2,30.01,ENE,58,0.0,0.0,87,0.00,,---,0.00,VWS V14.01,2013-03-04 06:12:00,
2013-03-04 00:14:00,14.4,11.2,30.01,ENE,59,0.0,0.0,87,0.00,,---,0.00,VWS V14.01,2013-03-04 06:14:00,
2013-03-04 00:15:00,14.6,11.4,30.01,ENE,59,0.0,0.0,87,0.00,,---,0.00,VWS V14.01,2013-03-04 06:15:00,
2013-03-04 00:17:00,14.6,11.4,30.01,ENE,59,0.0,0.0,87,0.00,,---,0.00,VWS V14.01,2013-03-04 06:17:00,
2013-03-04 00:19:00,14.6,11.4,30.01,ENE,59,0.0,0.0,87,0.00,,---,0.00,VWS V14.01,2013-03-04 06:19:00,
2013-03-04 00:22:00,14.6,11.4,30.01,ENE,59,0.0,0.0,87,0.00,,---,0.00,VWS V14.01,2013-03-04 06:22:00,
2013-03-04 00:23:00,14.6,11.4,30.01,ENE,59,0.0,0.0,87,0.00,,---,0.00,VWS V14.01,2013-03-04 06:23:00,
2013-03-04 00:26:00,14.6,11.4,30.01,ENE,59,0.0,0.0,87,0.00,,---,0.00,VWS V14.01,2013-03-04 06:26:00,
2013-03-04 00:29:00,14.6,11.4,30.01,ENE,59,0.0,0.0,87,0.00,,---,0.00,VWS V14.01,2013-03-04 06:29:00,
2013-03-04 00:31:00,14.6,11.4,30.01,ENE,59,0.0,0.0,87,0.00,,---,0.00,VWS V14.01,2013-03-04 06:31:00,
2013-03-04 00:32:00,14.6,11.4,30.01,ENE,59,0.0,0.0,87,0.00,,---,0.00,VWS V14.01,2013-03-04 06:32:00,
2013-03-04 00:34:00,14.4,11.2,30.01,ENE,58,0.0,0.0,87,0.00,,---,0.00,VWS V14.01,2013-03-04 06:34:00,
2013-03-04 00:35:00,14.4,11.2,30.01,ENE,59,0.0,0.0,87,0.00,,---,0.00,VWS V14.01,2013-03-04 06:35:00,
2013-03-04 00:37:00,14.4,11.2,30.01,ENE,59,0.0,0.0,87,0.00,,---,0.00,VWS V14.01,2013-03-04 06:37:00,
2013-03-04 00:39:00,14.4,11.2,30.01,ENE,59,0.0,0.0,87,0.00,,---,0.00,VWS V14.01,2013-03-04 06:39:00,
2013-03-04 00:42:00,14.3,11.1,30.01,ENE,59,0.0,0.0,87,0.00,,---,0.00,VWS V14.01,2013-03-04 06:42:00,
2013-03-04 00:43:00,14.3,11.1,30.01,ENE,59,0.0,0.0,87,0.00,,---,0.00,VWS V14.01,2013-03-04 06:43:00,
2013-03-04 00:44:00,14.3,11.1,30.01,ENE,59,0.0,0.0,87,0.00,,---,0.00,VWS V14.01,2013-03-04 06:44:00,
2013-03-04 00:48:00,14.1,10.9,30.01,ENE,59,0.0,0.0,87,0.00,,---,0.00,VWS V14.01,2013-03-04 06:48:00,
2013-03-04 00:49:00,14.1,10.9,30.01,ENE,58,0.0,0.0,87,0.00,,---,0.00,VWS V14.01,2013-03-04 06:49:00,
2013-03-04 00:51:00,14.1,10.9,30.01,ENE,59,0.0,0.0,87,0.00,,---,0.00,VWS V14.01,2013-03-04 06:51:00,
2013-03-04 00:52:00,14.1,10.9,30.01,ENE,59,0.0,0.0,87,0.00,,---,0.00,VWS V14.01,2013-03-04 06:52:00,
2013-03-04 00:54:00,14.1,10.9,30.01,ENE,59,0.0,0.0,87,0.00,,---,0.00,VWS V14.01,2013-03-04 06:54:00,
2013-03-04 00:55:00,14.1,10.9,30.01,ENE,58,0.0,0.0,87,0.00,,---,0.00,VWS V14.01,2013-03-04 06:55:00,
2013-03-04 00:56:00,14.1,11.2,30.01,ENE,58,0.0,0.0,88,0.00,,---,0.00,VWS V14.01,2013-03-04 06:56:00,
2013-03-04 00:57:00,14.1,11.2,30.01,ENE,59,0.0,0.0,88,0.00,,---,0.00,VWS V14.01,2013-03-04 06:57:00,
2013-03-04 01:00:00,14.1,11.2,30.02,ENE,59,0.0,0.0,88,0.00,,---,0.00,VWS V14.01,2013-03-04 07:00:00,
2013-03-04 01:01:00,14.1,11.2,30.02,ENE,59,0.0,0.0,88,0.00,,---,0.00,VWS V14.01,2013-03-04 07:01:00,
2013-03-04 01:03:00,14.3,11.4,30.02,ENE,59,0.0,0.0,88,0.00,,---,0.00,VWS V14.01,2013-03-04 07:03:00,
2013-03-04 01:06:00,14.3,11.4,30.02,ENE,59,0.0,0.0,88,0.00,,---,0.00,VWS V14.01,2013-03-04 07:06:00,
2013-03-04 01:08:00,14.3,11.4,30.02,ENE,59,0.0,0.0,88,0.00,,---,0.00,VWS V14.01,2013-03-04 07:08:00,
2013-03-04 01:10:00,14.3,11.4,30.02,ENE,59,0.0,0.0,88,0.00,,---,0.00,VWS V14.01,2013-03-04 07:10:00,
2013-03-04 01:11:00,14.3,11.4,30.02,ENE,59,0.0,0.0,88,0.00,,---,0.00,VWS V14.01,2013-03-04 07:11:00,
2013-03-04 01:12:00,14.3,11.4,30.02,ENE,59,0.0,0.0,88,0.00,,---,0.00,VWS V14.01,2013-03-04 07:12:00,
2013-03-04 01:13:00,14.3,11.4,30.02,ENE,59,0.0,0.0,88,0.00,,---,0.00,VWS V14.01,2013-03-04 07:13:00,
2013-03-04 01:16:00,14.3,11.4,30.02,ENE,59,0.0,0.0,88,0.00,,---,0.00,VWS V14.01,2013-03-04 07:16:00,
2013-03-04 01:17:00,14.3,11.4,30.02,ENE,59,0.0,0.0,88,0.00,,---,0.00,VWS V14.01,2013-03-04 07:17:00,
2013-03-04 01:18:00,14.3,11.4,30.02,ENE,58,0.0,0.0,88,0.00,,---,0.00,VWS V14.01,2013-03-04 07:18:00,
2013-03-04 01:22:00,14.3,11.4,30.02,ENE,59,0.0,0.0,88,0.00,,---,0.00,VWS V14.01,2013-03-04 07:22:00,
2013-03-04 01:23:00,14.3,11.4,30.02,ENE,59,0.0,0.0,88,0.00,,---,0.00,VWS V14.01,2013-03-04 07:23:00,
2013-03-04 01:24:00,14.3,11.4,30.02,ENE,59,0.0,0.0,88,0.00,,---,0.00,VWS V14.01,2013-03-04 07:24:00,
2013-03-04 01:25:00,14.3,11.4,30.02,ENE,59,0.0,0.0,88,0.00,,---,0.00,VWS V14.01,2013-03-04 07:25:00,
2013-03-04 01:28:00,14.3,11.4,30.02,ENE,59,0.0,0.0,88,0.00,,---,0.00,VWS V14.01,2013-03-04 07:28:00,
2013-03-04 01:29:00,14.3,11.4,30.02,ENE,58,0.0,0.0,88,0.00,,---,0.00,VWS V14.01,2013-03-04 07:29:00,
2013-03-04 01:30:00,14.3,11.4,30.02,ENE,58,0.0,0.0,88,0.00,,---,0.00,VWS V14.01,2013-03-04 07:30:00,
2013-03-04 01:33:00,14.3,11.4,30.02,ENE,59,0.0,0.0,88,0.00,,---,0.00,VWS V14.01,2013-03-04 07:33:00,
2013-03-04 01:35:00,14.3,11.4,30.02,ENE,59,0.0,0.0,88,0.00,,---,0.00,VWS V14.01,2013-03-04 07:35:00,
2013-03-04 01:36:00,14.3,11.4,30.02,ENE,58,0.0,0.0,88,0.00,,---,0.00,VWS V14.01,2013-03-04 07:36:00,
2013-03-04 01:39:00,14.4,11.8,30.02,ENE,59,0.0,0.0,89,0.00,,---,0.00,VWS V14.01,2013-03-04 07:39:00,
2013-03-04 01:41:00,14.4,11.8,30.02,ENE,59,0.0,0.0,89,0.00,,---,0.00,VWS V14.01,2013-03-04 07:41:00,
2013-03-04 01:45:00,14.6,11.9,30.03,ENE,58,0.0,0.0,89,0.00,,---,0.00,VWS V14.01,2013-03-04 07:45:00,
2013-03-04 01:46:00,14.6,11.9,30.03,ENE,59,0.0,0.0,89,0.00,,---,0.00,VWS V14.01,2013-03-04 07:46:00,
2013-03-04 01:49:00,14.6,11.9,30.03,ENE,59,0.0,0.0,89,0.00,,---,0.00,VWS V14.01,2013-03-04 07:49:00,
2013-03-04 01:51:00,14.8,12.1,30.03,ENE,59,0.0,0.0,89,0.00,,---,0.00,VWS V14.01,2013-03-04 07:51:00,
2013-03-04 01:56:00,14.8,12.1,30.03,ENE,59,0.0,0.0,89,0.00,,---,0.00,VWS V14.01,2013-03-04 07:56:00,
2013-03-04 01:57:00,14.8,12.1,30.03,ENE,59,0.0,0.0,89,0.00,,---,0.00,VWS V14.01,2013-03-04 07:57:00,
2013-03-04 01:58:00,14.6,11.9,30.03,ENE,59,0.0,0.0,89,0.00,,---,0.00,VWS V14.01,2013-03-04 07:58:00,
2013-03-04 02:02:00,14.6,11.9,30.02,ENE,59,0.0,0.0,89,0.00,,---,0.00,VWS V14.01,2013-03-04 08:02:00,
2013-03-04 02:03:00,14.6,11.9,30.02,ENE,59,0.0,0.0,89,0.00,,---,0.00,VWS V14.01,2013-03-04 08:03:00,
2013-03-04 02:04:00,14.6,11.9,30.02,ENE,59,0.0,0.0,89,0.00,,---,0.00,VWS V14.01,2013-03-04 08:04:00,
2013-03-04 02:07:00,14.4,11.8,30.02,ENE,59,0.0,0.0,89,0.00,,---,0.00,VWS V14.01,2013-03-04 08:07:00,
2013-03-04 02:09:00,14.4,11.5,30.02,ENE,59,0.0,0.0,88,0.00,,---,0.00,VWS V14.01,2013-03-04 08:09:00,
2013-03-04 02:10:00,14.4,11.5,30.02,ENE,59,0.0,0.0,88,0.00,,---,0.00,VWS V14.01,2013-03-04 08:10:00,
2013-03-04 02:12:00,14.3,11.7,30.02,ENE,59,0.0,0.0,89,0.00,,---,0.00,VWS V14.01,2013-03-04 08:12:00,
2013-03-04 02:15:00,14.3,11.7,30.02,ENE,59,0.0,0.0,89,0.00,,---,0.00,VWS V14.01,2013-03-04 08:15:00,
2013-03-04 02:16:00,14.3,11.7,30.02,ENE,59,0.0,0.0,89,0.00,,---,0.00,VWS V14.01,2013-03-04 08:16:00,
2013-03-04 02:18:00,14.3,11.7,30.02,ENE,59,0.0,0.0,89,0.00,,---,0.00,VWS V14.01,2013-03-04 08:18:00,
2013-03-04 02:21:00,14.4,11.8,30.02,ENE,59,0.0,0.0,89,0.00,,---,0.00,VWS V14.01,2013-03-04 08:21:00,
2013-03-04 02:22:00,14.4,11.8,30.02,ENE,59,0.0,0.0,89,0.00,,---,0.00,VWS V14.01,2013-03-04 08:22:00,
2013-03-04 02:24:00,14.4,11.8,30.02,ENE,59,0.0,0.0,89,0.00,,---,0.00,VWS V14.01,2013-03-04 08:24:00,
2013-03-04 02:27:00,14.4,11.8,30.02,ENE,59,0.0,0.0,89,0.00,,---,0.00,VWS V14.01,2013-03-04 08:27:00,
2013-03-04 02:28:00,14.4,11.8,30.02,ENE,59,0.0,0.0,89,0.00,,---,0.00,VWS V14.01,2013-03-04 08:28:00,
2013-03-04 02:30:00,14.4,11.8,30.02,ENE,58,0.0,0.0,89,0.00,,---,0.00,VWS V14.01,2013-03-04 08:30:00,
2013-03-04 02:32:00,14.4,11.8,30.02,ENE,59,0.0,0.0,89,0.00,,---,0.00,VWS V14.01,2013-03-04 08:32:00,
2013-03-04 02:34:00,14.3,11.7,30.02,ENE,59,0.0,0.0,89,0.00,,---,0.00,VWS V14.01,2013-03-04 08:34:00,
2013-03-04 02:36:00,14.3,11.7,30.02,ENE,59,0.0,0.0,89,0.00,,---,0.00,VWS V14.01,2013-03-04 08:36:00,
2013-03-04 02:39:00,14.3,11.7,30.02,ENE,59,0.0,0.0,89,0.00,,---,0.00,VWS V14.01,2013-03-04 08:39:00,
2013-03-04 02:40:00,14.3,11.7,30.02,ENE,59,0.0,0.0,89,0.00,,---,0.00,VWS V14.01,2013-03-04 08:40:00,
2013-03-04 02:42:00,14.1,11.5,30.02,ENE,59,0.0,0.0,89,0.00,,---,0.00,VWS V14.01,2013-03-04 08:42:00,
2013-03-04 02:45:00,14.1,11.5,30.02,ENE,59,0.0,0.0,89,0.00,,---,0.00,VWS V14.01,2013-03-04 08:45:00,
2013-03-04 02:50:00,14.1,11.5,30.02,ENE,59,0.0,0.0,89,0.00,,---,0.00,VWS V14.01,2013-03-04 08:50:00,
2013-03-04 02:51:00,14.1,11.5,30.02,ENE,59,0.0,0.0,89,0.00,,---,0.00,VWS V14.01,2013-03-04 08:51:00,
2013-03-04 02:52:00,14.1,11.5,30.02,ENE,59,0.0,0.0,89,0.00,,---,0.00,VWS V14.01,2013-03-04 08:52:00,
2013-03-04 02:55:00,14.1,11.5,30.02,ENE,59,0.0,0.0,89,0.00,,---,0.00,VWS V14.01,2013-03-04 08:55:00,
2013-03-04 02:56:00,14.3,11.7,30.02,ENE,59,0.0,0.0,89,0.00,,---,0.00,VWS V14.01,2013-03-04 08:56:00,
2013-03-04 02:58:00,14.3,11.7,30.02,ENE,58,0.0,0.0,89,0.00,,---,0.00,VWS V14.01,2013-03-04 08:58:00,
2013-03-04 03:00:00,14.3,11.7,30.02,ENE,58,0.0,0.0,89,0.00,,---,0.00,VWS V14.01,2013-03-04 09:00:00,
2013-03-04 03:01:00,14.3,11.7,30.02,ENE,59,0.0,0.0,89,0.00,,---,0.00,VWS V14.01,2013-03-04 09:01:00,
2013-03-04 03:02:00,14.3,11.7,30.02,ENE,58,0.0,0.0,89,0.00,,---,0.00,VWS V14.01,2013-03-04 09:02:00,
2013-03-04 03:03:00,14.3,11.7,30.02,ENE,59,0.0,0.0,89,0.00,,---,0.00,VWS V14.01,2013-03-04 09:03:00,
2013-03-04 03:06:00,14.3,11.7,30.02,ENE,59,0.0,0.0,89,0.00,,---,0.00,VWS V14.01,2013-03-04 09:06:00,
2013-03-04 03:07:00,14.3,11.7,30.02,ENE,59,0.0,0.0,89,0.00,,---,0.00,VWS V14.01,2013-03-04 09:07:00,
2013-03-04 03:08:00,14.3,11.7,30.02,ENE,59,0.0,0.0,89,0.00,,---,0.00,VWS V14.01,2013-03-04 09:08:00,
2013-03-04 03:09:00,14.3,11.7,30.02,ENE,59,0.0,0.0,89,0.00,,---,0.00,VWS V14.01,2013-03-04 09:09:00,
2013-03-04 03:12:00,14.3,11.7,30.02,ENE,59,0.0,0.0,89,0.00,,---,0.00,VWS V14.01,2013-03-04 09:12:00,
2013-03-04 03:14:00,14.3,11.7,30.02,ENE,59,0.0,0.0,89,0.00,,---,0.00,VWS V14.01,2013-03-04 09:14:00,
2013-03-04 03:17:00,14.3,11.7,30.02,ENE,59,0.0,0.0,89,0.00,,---,0.00,VWS V14.01,2013-03-04 09:17:00,
2013-03-04 03:18:00,14.3,11.7,30.02,ENE,59,0.0,0.0,89,0.00,,---,0.00,VWS V14.01,2013-03-04 09:18:00,
2013-03-04 03:20:00,14.3,11.7,30.02,ENE,59,0.0,0.0,89,0.00,,---,0.00,VWS V14.01,2013-03-04 09:20:00,
2013-03-04 03:24:00,14.1,11.5,30.02,ENE,59,0.0,0.0,89,0.00,,---,0.00,VWS V14.01,2013-03-04 09:24:00,
2013-03-04 03:25:00,14.1,11.5,30.02,ENE,59,0.0,0.0,89,0.00,,---,0.00,VWS V14.01,2013-03-04 09:25:00,
2013-03-04 03:26:00,14.1,11.5,30.02,ENE,58,0.0,0.0,89,0.00,,---,0.00,VWS V14.01,2013-03-04 09:26:00,
2013-03-04 03:27:00,14.1,11.5,30.02,ENE,59,0.0,0.0,89,0.00,,---,0.00,VWS V14.01,2013-03-04 09:27:00,
2013-03-04 03:29:00,14.1,11.5,30.02,ENE,59,0.0,0.0,89,0.00,,---,0.00,VWS V14.01,2013-03-04 09:29:00,
2013-03-04 03:33:00,14.1,11.5,30.02,ENE,58,0.0,0.0,89,0.00,,---,0.00,VWS V14.01,2013-03-04 09:33:00,
2013-03-04 03:35:00,14.1,11.5,30.02,ENE,58,0.0,0.0,89,0.00,,---,0.00,VWS V14.01,2013-03-04 09:35:00,
2013-03-04 03:38:00,14.1,11.5,30.02,ENE,59,0.0,0.0,89,0.00,,---,0.00,VWS V14.01,2013-03-04 09:38:00,
2013-03-04 03:39:00,14.1,11.5,30.02,ENE,58,0.0,0.0,89,0.00,,---,0.00,VWS V14.01,2013-03-04 09:39:00,
2013-03-04 03:40:00,14.1,11.5,30.02,ENE,59,0.0,0.0,89,0.00,,---,0.00,VWS V14.01,2013-03-04 09:40:00,
2013-03-04 03:43:00,14.1,11.5,30.02,ENE,59,0.0,0.0,89,0.00,,---,0.00,VWS V14.01,2013-03-04 09:43:00,
2013-03-04 03:44:00,14.1,11.5,30.02,ENE,59,0.0,0.0,89,0.00,,---,0.00,VWS V14.01,2013-03-04 09:44:00,
2013-03-04 03:45:00,14.1,11.5,30.02,ENE,58,0.0,0.0,89,0.00,,---,0.00,VWS V14.01,2013-03-04 09:45:00,
2013-03-04 03:46:00,14.1,11.5,30.02,ENE,59,0.0,0.0,89,0.00,,---,0.00,VWS V14.01,2013-03-04 09:46:00,
2013-03-04 03:49:00,14.1,11.5,30.02,ENE,59,0.0,0.0,89,0.00,,---,0.00,VWS V14.01,2013-03-04 09:49:00,
2013-03-04 03:50:00,14.1,11.5,30.02,ENE,59,0.0,0.0,89,0.00,,---,0.00,VWS V14.01,2013-03-04 09:50:00,
2013-03-04 03:52:00,14.1,11.7,30.02,ENE,59,0.0,0.0,90,0.00,,---,0.00,VWS V14.01,2013-03-04 09:52:00,
2013-03-04 03:54:00,14.1,11.7,30.02,ENE,59,0.0,0.0,90,0.00,,---,0.00,VWS V14.01,2013-03-04 09:54:00,
2013-03-04 03:55:00,14.1,11.7,30.02,ENE,59,0.0,0.0,90,0.00,,---,0.00,VWS V14.01,2013-03-04 09:55:00,
2013-03-04 03:56:00,14.1,11.7,30.02,ENE,59,0.0,0.0,90,0.00,,---,0.00,VWS V14.01,2013-03-04 09:56:00,
2013-03-04 03:57:00,14.1,11.7,30.02,ENE,59,0.0,0.0,90,0.00,,---,0.00,VWS V14.01,2013-03-04 09:57:00,
2013-03-04 03:59:00,14.1,11.5,30.03,ENE,59,0.0,0.0,89,0.00,,---,0.00,VWS V14.01,2013-03-04 09:59:00,
2013-03-04 04:01:00,14.1,11.5,30.03,ENE,59,0.0,0.0,89,0.00,,---,0.00,VWS V14.01,2013-03-04 10:01:00,
2013-03-04 04:02:00,14.1,11.5,30.03,ENE,59,0.0,0.0,89,0.00,,---,0.00,VWS V14.01,2013-03-04 10:02:00,
2013-03-04 04:04:00,14.1,11.5,30.03,ENE,59,0.0,0.0,89,0.00,,---,0.00,VWS V14.01,2013-03-04 10:04:00,
2013-03-04 04:06:00,14.1,11.7,30.03,ENE,59,0.0,0.0,90,0.00,,---,0.00,VWS V14.01,2013-03-04 10:06:00,
2013-03-04 04:08:00,14.1,11.7,30.03,ENE,59,0.0,0.0,90,0.00,,---,0.00,VWS V14.01,2013-03-04 10:08:00,
2013-03-04 04:09:00,14.1,11.7,30.03,ENE,59,0.0,0.0,90,0.00,,---,0.00,VWS V14.01,2013-03-04 10:09:00,
2013-03-04 04:11:00,14.1,11.7,30.03,ENE,59,0.0,0.0,90,0.00,,---,0.00,VWS V14.01,2013-03-04 10:11:00,
2013-03-04 04:14:00,14.1,11.7,30.03,ENE,59,0.0,0.0,90,0.00,,---,0.00,VWS V14.01,2013-03-04 10:14:00,
2013-03-04 04:17:00,14.1,11.7,30.03,ENE,59,0.0,0.0,90,0.00,,---,0.00,VWS V14.01,2013-03-04 10:17:00,
2013-03-04 04:19:00,14.1,11.7,30.03,ENE,59,0.0,0.0,90,0.00,,---,0.00,VWS V14.01,2013-03-04 10:19:00,
2013-03-04 04:22:00,14.1,11.7,30.03,ENE,59,0.0,0.0,90,0.00,,---,0.00,VWS V14.01,2013-03-04 10:22:00,
2013-03-04 04:24:00,14.1,11.7,30.03,ENE,59,0.0,0.0,90,0.00,,---,0.00,VWS V14.01,2013-03-04 10:24:00,
2013-03-04 04:25:00,14.1,11.7,30.03,ENE,59,0.0,0.0,90,0.00,,---,0.00,VWS V14.01,2013-03-04 10:25:00,
2013-03-04 04:27:00,14.3,11.9,30.03,ENE,59,0.0,0.0,90,0.00,,---,0.00,VWS V14.01,2013-03-04 10:27:00,
2013-03-04 04:28:00,14.3,11.9,30.03,ENE,59,0.0,0.0,90,0.00,,---,0.00,VWS V14.01,2013-03-04 10:28:00,
2013-03-04 04:30:00,14.3,11.9,30.04,ENE,59,0.0,0.0,90,0.00,,---,0.00,VWS V14.01,2013-03-04 10:30:00,
2013-03-04 04:32:00,14.3,11.9,30.04,ENE,59,0.0,0.0,90,0.00,,---,0.00,VWS V14.01,2013-03-04 10:32:00,
2013-03-04 04:34:00,14.3,11.9,30.04,ENE,59,0.0,0.0,90,0.00,,---,0.00,VWS V14.01,2013-03-04 10:34:00,
2013-03-04 04:35:00,14.1,11.7,30.04,ENE,59,0.0,0.0,90,0.00,,---,0.00,VWS V14.01,2013-03-04 10:35:00,
2013-03-04 04:36:00,14.1,11.7,30.04,ENE,58,0.0,0.0,90,0.00,,---,0.00,VWS V14.01,2013-03-04 10:36:00,
2013-03-04 04:37:00,14.1,11.7,30.04,ENE,59,0.0,0.0,90,0.00,,---,0.00,VWS V14.01,2013-03-04 10:37:00,
2013-03-04 04:39:00,14.1,11.7,30.04,ENE,59,0.0,0.0,90,0.00,,---,0.00,VWS V14.01,2013-03-04 10:39:00,
2013-03-04 04:40:00,14.1,11.7,30.04,ENE,59,0.0,0.0,90,0.00,,---,0.00,VWS V14.01,2013-03-04 10:40:00,
2013-03-04 04:42:00,14.1,11.7,30.04,ENE,59,0.0,0.0,90,0.00,,---,0.00,VWS V14.01,2013-03-04 10:42:00,
2013-03-04 04:44:00,14.1,11.7,30.04,ENE,59,0.0,0.0,90,0.00,,---,0.00,VWS V14.01,2013-03-04 10:44:00,
2013-03-04 04:45:00,14.1,11.7,30.04,ENE,59,0.0,0.0,90,0.00,,---,0.00,VWS V14.01,2013-03-04 10:45:00,
2013-03-04 04:47:00,14.0,11.6,30.04,ENE,59,0.0,0.0,90,0.00,,---,0.00,VWS V14.01,2013-03-04 10:47:00,
2013-03-04 04:50:00,14.0,11.6,30.04,ENE,59,0.0,0.0,90,0.00,,---,0.00,VWS V14.01,2013-03-04 10:50:00,
2013-03-04 04:51:00,14.0,11.6,30.04,ENE,59,0.0,0.0,90,0.00,,---,0.00,VWS V14.01,2013-03-04 10:51:00,
2013-03-04 04:52:00,14.0,11.6,30.04,ENE,59,0.0,0.0,90,0.00,,---,0.00,VWS V14.01,2013-03-04 10:52:00,
2013-03-04 04:56:00,14.0,11.6,30.04,ENE,59,0.0,0.0,90,0.00,,---,0.00,VWS V14.01,2013-03-04 10:56:00,
2013-03-04 04:57:00,14.0,11.6,30.04,ENE,59,0.0,0.0,90,0.00,,---,0.00,VWS V14.01,2013-03-04 10:57:00,
2013-03-04 04:58:00,14.0,11.6,30.04,ENE,59,0.0,0.0,90,0.00,,---,0.00,VWS V14.01,2013-03-04 10:58:00,
2013-03-04 05:01:00,14.1,11.7,30.04,ENE,59,0.0,0.0,90,0.00,,---,0.00,VWS V14.01,2013-03-04 11:01:00,
2013-03-04 05:02:00,14.1,11.7,30.04,ENE,58,0.0,0.0,90,0.00,,---,0.00,VWS V14.01,2013-03-04 11:02:00,
2013-03-04 05:03:00,14.1,11.7,30.04,ENE,59,0.0,0.0,90,0.00,,---,0.00,VWS V14.01,2013-03-04 11:03:00,
2013-03-04 05:05:00,14.1,11.7,30.04,ENE,59,0.0,0.0,90,0.00,,---,0.00,VWS V14.01,2013-03-04 11:05:00,
2013-03-04 05:07:00,14.1,11.7,30.04,ENE,59,0.0,0.0,90,0.00,,---,0.00,VWS V14.01,2013-03-04 11:07:00,
2013-03-04 05:08:00,14.1,11.7,30.04,ENE,59,0.0,0.0,90,0.00,,---,0.00,VWS V14.01,2013-03-04 11:08:00,
2013-03-04 05:10:00,14.1,11.7,30.04,ENE,59,0.0,0.0,90,0.00,,---,0.00,VWS V14.01,2013-03-04 11:10:00,
2013-03-04 05:11:00,14.1,11.7,30.04,ENE,59,0.0,0.0,90,0.00,,---,0.00,VWS V14.01,2013-03-04 11:11:00,
2013-03-04 05:12:00,14.1,11.7,30.04,ENE,59,0.0,0.0,90,0.00,,---,0.00,VWS V14.01,2013-03-04 11:12:00,
2013-03-04 05:15:00,14.1,11.7,30.04,ENE,59,0.0,0.0,90,0.00,,---,0.00,VWS V14.01,2013-03-04 11:15:00,
2013-03-04 05:17:00,14.1,11.7,30.04,ENE,59,0.0,0.0,90,0.00,,---,0.00,VWS V14.01,2013-03-04 11:17:00,
2013-03-04 05:19:00,14.1,11.7,30.04,ENE,59,0.0,0.0,90,0.00,,---,0.00,VWS V14.01,2013-03-04 11:19:00,
2013-03-04 05:22:00,14.0,11.6,30.04,ENE,59,0.0,0.0,90,0.00,,---,0.00,VWS V14.01,2013-03-04 11:22:00,
2013-03-04 05:24:00,14.0,11.6,30.04,ENE,59,0.0,0.0,90,0.00,,---,0.00,VWS V14.01,2013-03-04 11:24:00,
2013-03-04 05:25:00,14.0,11.6,30.04,ENE,59,0.0,0.0,90,0.00,,---,0.00,VWS V14.01,2013-03-04 11:25:00,
2013-03-04 05:28:00,14.0,11.6,30.04,ENE,59,0.0,0.0,90,0.00,,---,0.00,VWS V14.01,2013-03-04 11:28:00,
2013-03-04 05:29:00,14.0,11.6,30.04,ENE,59,0.0,0.0,90,0.00,,---,0.00,VWS V14.01,2013-03-04 11:29:00,
2013-03-04 05:30:00,14.0,11.6,30.04,ENE,59,0.0,0.0,90,0.00,,---,0.00,VWS V14.01,2013-03-04 11:30:00,
2013-03-04 05:34:00,13.8,11.4,30.04,ENE,59,0.0,0.0,90,0.00,,---,0.00,VWS V14.01,2013-03-04 11:34:00,
2013-03-04 05:35:00,13.8,11.4,30.04,ENE,59,0.0,0.0,90,0.00,,---,0.00,VWS V14.01,2013-03-04 11:35:00,
2013-03-04 05:36:00,13.8,11.4,30.04,ENE,59,0.0,0.0,90,0.00,,---,0.00,VWS V14.01,2013-03-04 11:36:00,
2013-03-04 05:40:00,13.6,11.2,30.04,ENE,58,0.0,0.0,90,0.00,,---,0.00,VWS V14.01,2013-03-04 11:40:00,
2013-03-04 05:41:00,13.6,11.2,30.04,ENE,59,0.0,0.0,90,0.00,,---,0.00,VWS V14.01,2013-03-04 11:41:00,
2013-03-04 05:42:00,13.6,11.2,30.04,ENE,59,0.0,0.0,90,0.00,,---,0.00,VWS V14.01,2013-03-04 11:42:00,
2013-03-04 05:43:00,13.6,11.2,30.04,ENE,59,0.0,0.0,90,0.00,,---,0.00,VWS V14.01,2013-03-04 11:43:00,
2013-03-04 05:46:00,13.6,11.2,30.04,ENE,59,0.0,0.0,90,0.00,,---,0.00,VWS V14.01,2013-03-04 11:46:00,
2013-03-04 05:47:00,13.6,11.2,30.04,ENE,59,0.0,0.0,90,0.00,,---,0.00,VWS V14.01,2013-03-04 11:47:00,
2013-03-04 05:50:00,13.6,11.2,30.04,ENE,58,0.0,0.0,90,0.00,,---,0.00,VWS V14.01,2013-03-04 11:50:00,
2013-03-04 05:52:00,13.6,11.2,30.04,ENE,58,0.0,0.0,90,0.00,,---,0.00,VWS V14.01,2013-03-04 11:52:00,
2013-03-04 05:53:00,13.6,11.2,30.04,ENE,59,0.0,0.0,90,0.00,,---,0.00,VWS V14.01,2013-03-04 11:53:00,
2013-03-04 05:54:00,13.6,11.2,30.04,ENE,59,0.0,0.0,90,0.00,,---,0.00,VWS V14.01,2013-03-04 11:54:00,
2013-03-04 05:57:00,13.6,11.2,30.04,ENE,59,0.0,0.0,90,0.00,,---,0.00,VWS V14.01,2013-03-04 11:57:00,
2013-03-04 05:58:00,13.8,11.4,30.04,ENE,59,0.0,0.0,90,0.00,,---,0.00,VWS V14.01,2013-03-04 11:58:00,
2013-03-04 05:59:00,13.8,11.4,30.04,ENE,59,0.0,0.0,90,0.00,,---,0.00,VWS V14.01,2013-03-04 11:59:00,
2013-03-04 06:01:00,13.8,11.4,30.04,ENE,59,0.0,0.0,90,0.00,,---,0.00,VWS V14.01,2013-03-04 12:01:00,
2013-03-04 06:03:00,14.0,11.9,30.04,ENE,59,0.0,0.0,91,0.00,,---,0.00,VWS V14.01,2013-03-04 12:03:00,
2013-03-04 06:05:00,14.0,11.9,30.04,ENE,59,0.0,0.0,91,0.00,,---,0.00,VWS V14.01,2013-03-04 12:05:00,
2013-03-04 06:06:00,14.0,11.9,30.04,ENE,59,0.0,0.0,91,0.00,,---,0.00,VWS V14.01,2013-03-04 12:06:00,
2013-03-04 06:08:00,14.1,12.0,30.04,ENE,59,0.0,0.0,91,0.00,,---,0.00,VWS V14.01,2013-03-04 12:08:00,
2013-03-04 06:10:00,14.3,12.2,30.04,ENE,59,0.0,0.0,91,0.00,,---,0.00,VWS V14.01,2013-03-04 12:10:00,
2013-03-04 06:12:00,14.3,12.2,30.04,ENE,59,0.0,0.0,91,0.00,,---,0.00,VWS V14.01,2013-03-04 12:12:00,
2013-03-04 06:14:00,14.4,12.3,30.04,ENE,59,0.0,0.0,91,0.00,,---,0.00,VWS V14.01,2013-03-04 12:14:00,
2013-03-04 06:15:00,14.6,12.5,30.04,ENE,59,0.0,0.0,91,0.00,,---,0.00,VWS V14.01,2013-03-04 12:15:00,
2013-03-04 06:18:00,14.6,12.5,30.04,ENE,59,0.0,0.0,91,0.00,,---,0.00,VWS V14.01,2013-03-04 12:18:00,
2013-03-04 06:20:00,14.8,12.6,30.04,ENE,59,0.0,0.0,91,0.00,,---,0.00,VWS V14.01,2013-03-04 12:20:00,
2013-03-04 06:21:00,14.8,12.6,30.04,ENE,59,0.0,0.0,91,0.00,,---,0.00,VWS V14.01,2013-03-04 12:21:00,
2013-03-04 06:23:00,14.9,12.8,30.04,ENE,59,0.0,0.0,91,0.00,,---,0.00,VWS V14.01,2013-03-04 12:23:00,
2013-03-04 06:25:00,14.9,12.8,30.04,ENE,58,0.0,0.0,91,0.00,,---,0.00,VWS V14.01,2013-03-04 12:25:00,
2013-03-04 06:26:00,14.9,12.8,30.04,ENE,59,0.0,0.0,91,0.00,,---,0.00,VWS V14.01,2013-03-04 12:26:00,
2013-03-04 06:27:00,14.9,12.8,30.04,ENE,59,0.0,0.0,91,0.00,,---,0.00,VWS V14.01,2013-03-04 12:27:00,
2013-03-04 06:29:00,15.1,12.9,30.04,ENE,59,0.0,0.0,91,0.00,,---,0.00,VWS V14.01,2013-03-04 12:29:00,
2013-03-04 06:31:00,15.2,13.1,30.04,ENE,59,0.0,0.0,91,0.00,,---,0.00,VWS V14.01,2013-03-04 12:31:00,
2013-03-04 06:32:00,15.2,13.3,30.04,ENE,59,0.0,0.0,92,0.00,,---,0.00,VWS V14.01,2013-03-04 12:32:00,
2013-03-04 06:34:00,15.2,13.1,30.04,ENE,59,0.0,0.0,91,0.00,,---,0.00,VWS V14.01,2013-03-04 12:34:00,
2013-03-04 06:36:00,15.4,13.5,30.04,ENE,59,0.0,0.0,92,0.00,,---,0.00,VWS V14.01,2013-03-04 12:36:00,
2013-03-04 06:37:00,15.4,13.5,30.04,ENE,59,0.0,0.0,92,0.00,,---,0.00,VWS V14.01,2013-03-04 12:37:00,
2013-03-04 06:38:00,15.6,13.7,30.04,ENE,59,0.0,0.0,92,0.00,,---,0.00,VWS V14.01,2013-03-04 12:38:00,
2013-03-04 06:40:00,15.6,13.7,30.04,ENE,59,0.0,0.0,92,0.00,,---,0.00,VWS V14.01,2013-03-04 12:40:00,
2013-03-04 06:42:00,15.6,13.7,30.04,ENE,59,0.0,0.0,92,0.00,,---,0.00,VWS V14.01,2013-03-04 12:42:00,
2013-03-04 06:44:00,15.7,13.8,30.03,ENE,59,0.0,0.0,92,0.00,,---,0.00,VWS V14.01,2013-03-04 12:44:00,
2013-03-04 06:45:00,15.7,13.8,30.03,ENE,58,0.0,0.0,92,0.00,,---,0.00,VWS V14.01,2013-03-04 12:45:00,
2013-03-04 06:47:00,15.9,14.0,30.03,ENE,59,0.0,0.0,92,0.00,,---,0.00,VWS V14.01,2013-03-04 12:47:00,
2013-03-04 06:48:00,15.9,14.0,30.03,ENE,59,0.0,0.0,92,0.00,,---,0.00,VWS V14.01,2013-03-04 12:48:00,
2013-03-04 06:50:00,16.1,14.2,30.03,ENE,59,0.0,0.0,92,0.00,,---,0.00,VWS V14.01,2013-03-04 12:50:00,
2013-03-04 06:54:00,16.2,14.3,30.03,ENE,59,0.0,0.0,92,0.00,,---,0.00,VWS V14.01,2013-03-04 12:54:00,
2013-03-04 06:57:00,16.4,14.5,30.03,ENE,59,0.0,0.0,92,0.00,,---,0.00,VWS V14.01,2013-03-04 12:57:00,
2013-03-04 06:58:00,16.4,14.5,30.03,ENE,59,0.0,0.0,92,0.00,,---,0.00,VWS V14.01,2013-03-04 12:58:00,
2013-03-04 07:00:00,16.5,14.6,30.03,ENE,58,0.0,0.0,92,0.00,,---,0.00,VWS V14.01,2013-03-04 13:00:00,
2013-03-04 07:04:00,16.7,14.8,30.03,ENE,59,0.0,0.0,92,0.00,,---,0.00,VWS V14.01,2013-03-04 13:04:00,
2013-03-04 07:05:00,16.7,14.8,30.03,ENE,58,0.0,0.0,92,0.00,,---,0.00,VWS V14.01,2013-03-04 13:05:00,
2013-03-04 07:06:00,16.9,15.0,30.03,ENE,59,0.0,0.0,92,0.00,,---,0.00,VWS V14.01,2013-03-04 13:06:00,
2013-03-04 07:08:00,17.0,15.1,30.03,ENE,58,0.0,0.0,92,0.00,,---,0.00,VWS V14.01,2013-03-04 13:08:00,
2013-03-04 07:09:00,17.0,15.1,30.03,ENE,58,0.0,0.0,92,0.00,,---,0.00,VWS V14.01,2013-03-04 13:09:00,
2013-03-04 07:11:00,17.2,15.3,30.03,ENE,59,0.0,0.0,92,0.00,,---,0.00,VWS V14.01,2013-03-04 13:11:00,
2013-03-04 07:12:00,17.2,15.3,30.03,ENE,59,0.0,0.0,92,0.00,,---,0.00,VWS V14.01,2013-03-04 13:12:00,
2013-03-04 07:14:00,17.3,15.4,30.03,ENE,59,0.0,0.0,92,0.00,,---,0.00,VWS V14.01,2013-03-04 13:14:00,
2013-03-04 07:16:00,17.5,15.6,30.03,ENE,59,0.0,0.0,92,0.00,,---,0.00,VWS V14.01,2013-03-04 13:16:00,
2013-03-04 07:17:00,17.5,15.6,30.03,ENE,59,0.0,0.0,92,0.00,,---,0.00,VWS V14.01,2013-03-04 13:17:00,
2013-03-04 07:20:00,18.0,16.1,30.03,ENE,59,0.0,0.0,92,0.00,,---,0.00,VWS V14.01,2013-03-04 13:20:00,
2013-03-04 07:22:00,18.1,16.2,30.03,ENE,59,0.0,0.0,92,0.00,,---,0.00,VWS V14.01,2013-03-04 13:22:00,
2013-03-04 07:23:00,18.3,16.4,30.03,ENE,59,0.0,0.0,92,0.00,,---,0.00,VWS V14.01,2013-03-04 13:23:00,
2013-03-04 07:26:00,18.8,17.1,30.03,ENE,59,0.0,0.0,93,0.00,,---,0.00,VWS V14.01,2013-03-04 13:26:00,
2013-03-04 07:28:00,19.2,17.5,30.03,ENE,59,0.0,0.0,93,0.00,,---,0.00,VWS V14.01,2013-03-04 13:28:00,
2013-03-04 07:30:00,19.7,18.0,30.03,ENE,59,0.0,0.0,93,0.00,,---,0.00,VWS V14.01,2013-03-04 13:30:00,
2013-03-04 07:31:00,19.9,18.2,30.03,ENE,59,0.0,0.0,93,0.00,,---,0.00,VWS V14.01,2013-03-04 13:31:00,
2013-03-04 07:34:00,20.2,18.5,30.03,ENE,59,0.0,0.0,93,0.00,,---,0.00,VWS V14.01,2013-03-04 13:34:00,
2013-03-04 07:35:00,20.3,18.6,30.03,ENE,59,1.0,1.0,93,0.00,,---,0.00,VWS V14.01,2013-03-04 13:35:00,
2013-03-04 07:36:00,20.5,18.8,30.03,ENE,77,0.0,1.0,93,0.00,,---,0.00,VWS V14.01,2013-03-04 13:36:00,
2013-03-04 07:39:00,21.0,19.0,30.03,ENE,77,0.0,0.0,92,0.00,,---,0.00,VWS V14.01,2013-03-04 13:39:00,
2013-03-04 07:40:00,21.0,19.0,30.03,ENE,77,1.0,1.0,92,0.00,,---,0.00,VWS V14.01,2013-03-04 13:40:00,
2013-03-04 07:41:00,21.1,19.1,30.03,ENE,77,1.0,1.0,92,0.00,,---,0.00,VWS V14.01,2013-03-04 13:41:00,
2013-03-04 07:43:00,21.3,19.3,30.03,ENE,77,0.0,0.0,92,0.00,,---,0.00,VWS V14.01,2013-03-04 13:43:00,
2013-03-04 07:46:00,21.8,19.8,30.03,ENE,77,0.0,0.0,92,0.00,,---,0.00,VWS V14.01,2013-03-04 13:46:00,
2013-03-04 07:47:00,21.9,19.9,30.03,ENE,77,0.0,0.0,92,0.00,,---,0.00,VWS V14.01,2013-03-04 13:47:00,
2013-03-04 07:48:00,22.1,20.1,30.03,ENE,77,1.0,1.0,92,0.00,,---,0.00,VWS V14.01,2013-03-04 13:48:00,
2013-03-04 07:52:00,22.7,20.5,30.03,ENE,78,1.0,1.0,91,0.00,,---,0.00,VWS V14.01,2013-03-04 13:52:00,
2013-03-04 07:53:00,22.7,20.5,30.03,SSE,165,1.0,2.0,91,0.00,,---,0.00,VWS V14.01,2013-03-04 13:53:00,
2013-03-04 07:55:00,23.0,20.5,30.03,SE,144,0.0,1.0,90,0.00,,---,0.00,VWS V14.01,2013-03-04 13:55:00,
2013-03-04 07:58:00,23.3,20.5,30.03,SE,126,0.0,1.0,89,0.00,,---,0.00,VWS V14.01,2013-03-04 13:58:00,
2013-03-04 08:00:00,23.5,20.7,30.04,SSE,155,1.0,2.0,89,0.00,,---,0.00,VWS V14.01,2013-03-04 14:00:00,
2013-03-04 08:01:00,23.6,20.8,30.04,South,172,0.0,1.0,89,0.00,,---,0.00,VWS V14.01,2013-03-04 14:01:00,
2013-03-04 08:05:00,24.1,21.1,30.04,ESE,117,0.0,0.0,88,0.00,,---,0.00,VWS V14.01,2013-03-04 14:05:00,
2013-03-04 08:07:00,24.4,21.4,30.04,ESE,117,0.0,0.0,88,0.00,,---,0.00,VWS V14.01,2013-03-04 14:07:00,
2013-03-04 08:11:00,24.8,21.5,30.04,South,189,1.0,2.0,87,0.00,,---,0.00,VWS V14.01,2013-03-04 14:11:00,
2013-03-04 08:12:00,25.0,21.4,30.04,South,172,2.0,2.0,86,0.00,,---,0.00,VWS V14.01,2013-03-04 14:12:00,
2013-03-04 08:13:00,25.1,21.5,30.04,SSE,166,2.0,2.0,86,0.00,,---,0.00,VWS V14.01,2013-03-04 14:13:00,
2013-03-04 08:16:00,25.4,21.2,30.04,SE,146,1.0,2.0,84,0.00,,---,0.00,VWS V14.01,2013-03-04 14:16:00,
2013-03-04 08:17:00,25.6,21.5,30.04,SE,146,0.0,1.0,84,0.00,,---,0.00,VWS V14.01,2013-03-04 14:17:00,
2013-03-04 08:18:00,25.6,21.2,30.04,SE,146,0.0,1.0,83,0.00,,---,0.00,VWS V14.01,2013-03-04 14:18:00,
2013-03-04 08:19:00,25.6,21.2,30.04,SE,146,0.0,0.0,83,0.00,,---,0.00,VWS V14.01,2013-03-04 14:19:00,
2013-03-04 08:22:00,26.0,21.3,30.04,ESE,122,1.0,1.0,82,0.00,,---,0.00,VWS V14.01,2013-03-04 14:22:00,
2013-03-04 08:24:00,26.0,21.0,30.04,ESE,108,1.0,2.0,81,0.00,,---,0.00,VWS V14.01,2013-03-04 14:24:00,
2013-03-04 08:26:00,26.0,20.7,30.04,SSE,149,2.0,3.0,80,0.00,,---,0.00,VWS V14.01,2013-03-04 14:26:00,
2013-03-04 08:28:00,26.0,20.4,30.04,SE,141,1.0,3.0,79,0.00,,---,0.00,VWS V14.01,2013-03-04 14:28:00,
2013-03-04 08:30:00,26.1,20.5,30.04,ESE,112,1.0,2.0,79,0.00,,---,0.00,VWS V14.01,2013-03-04 14:30:00,
2013-03-04 08:33:00,26.3,20.7,30.04,ESE,123,3.0,4.0,79,0.00,,---,0.00,VWS V14.01,2013-03-04 14:33:00,
2013-03-04 08:34:00,26.4,20.8,30.04,East,100,1.0,2.0,79,0.00,,---,0.00,VWS V14.01,2013-03-04 14:34:00,
2013-03-04 08:35:00,26.4,20.5,30.04,SSW,203,4.0,4.0,78,0.00,,---,0.00,VWS V14.01,2013-03-04 14:35:00,
2013-03-04 08:36:00,26.4,20.2,30.04,South,189,1.0,4.0,77,0.00,,---,0.00,VWS V14.01,2013-03-04 14:36:00,
2013-03-04 08:39:00,26.6,20.4,30.04,SE,146,3.0,3.0,77,0.00,,---,0.00,VWS V14.01,2013-03-04 14:39:00,
2013-03-04 08:41:00,26.7,20.2,30.04,SE,129,2.0,2.0,76,0.00,,---,0.00,VWS V14.01,2013-03-04 14:41:00,
2013-03-04 08:43:00,26.9,20.4,30.04,SE,127,0.0,3.0,76,0.00,,---,0.00,VWS V14.01,2013-03-04 14:43:00,
2013-03-04 08:44:00,26.9,20.4,30.04,East,81,1.0,2.0,76,0.00,,---,0.00,VWS V14.01,2013-03-04 14:44:00,
2013-03-04 08:47:00,27.0,20.1,30.04,ESE,110,2.0,2.0,75,0.00,,---,0.00,VWS V14.01,2013-03-04 14:47:00,
2013-03-04 08:49:00,27.2,20.3,30.04,SE,135,2.0,4.0,75,0.00,,---,0.00,VWS V14.01,2013-03-04 14:49:00,
2013-03-04 08:50:00,27.3,20.4,30.04,SE,135,1.0,2.0,75,0.00,,---,0.00,VWS V14.01,2013-03-04 14:50:00,
2013-03-04 08:51:00,27.3,20.4,30.04,SE,135,1.0,2.0,75,0.00,,---,0.00,VWS V14.01,2013-03-04 14:51:00,
2013-03-04 08:54:00,27.5,20.3,30.04,SE,139,3.0,4.0,74,0.00,,---,0.00,VWS V14.01,2013-03-04 14:54:00,
2013-03-04 08:56:00,27.6,20.4,30.04,South,170,0.0,0.0,74,0.00,,---,0.00,VWS V14.01,2013-03-04 14:56:00,
2013-03-04 08:58:00,27.8,20.3,30.04,ESE,119,2.0,2.0,73,0.00,,---,0.00,VWS V14.01,2013-03-04 14:58:00,
2013-03-04 08:59:00,27.9,20.4,30.03,ESE,118,0.0,0.0,73,0.00,,---,0.00,VWS V14.01,2013-03-04 14:59:00,
2013-03-04 09:01:00,28.2,20.7,30.03,ESE,123,1.0,2.0,73,0.00,,---,0.00,VWS V14.01,2013-03-04 15:01:00,
2013-03-04 09:02:00,28.4,20.9,30.03,ESE,123,2.0,3.0,73,0.00,,---,0.00,VWS V14.01,2013-03-04 15:02:00,
2013-03-04 09:03:00,28.4,20.9,30.03,SE,135,2.0,2.0,73,0.00,,---,0.00,VWS V14.01,2013-03-04 15:03:00,
2013-03-04 09:05:00,28.7,20.8,30.03,SE,136,3.0,3.0,72,0.00,,---,0.00,VWS V14.01,2013-03-04 15:05:00,
2013-03-04 09:06:00,28.7,20.5,30.03,SSE,148,3.0,5.0,71,0.00,,---,0.00,VWS V14.01,2013-03-04 15:06:00,
2013-03-04 09:08:00,28.7,20.5,30.03,ESE,108,2.0,3.0,71,0.00,,---,0.00,VWS V14.01,2013-03-04 15:08:00,
2013-03-04 09:09:00,28.7,20.5,30.03,ENE,75,1.0,2.0,71,0.00,,---,0.00,VWS V14.01,2013-03-04 15:09:00,
2013-03-04 09:10:00,28.8,20.6,30.03,ESE,119,1.0,3.0,71,0.00,,---,0.00,VWS V14.01,2013-03-04 15:10:00,
2013-03-04 09:13:00,28.7,20.5,30.03,SSE,161,1.0,2.0,71,0.00,,---,0.00,VWS V14.01,2013-03-04 15:13:00,
2013-03-04 09:14:00,28.7,20.5,30.03,ESE,120,2.0,4.0,71,0.00,,---,0.00,VWS V14.01,2013-03-04 15:14:00,
2013-03-04 09:15:00,28.7,20.5,30.03,East,93,3.0,3.0,71,0.00,,---,0.00,VWS V14.01,2013-03-04 15:15:00,
2013-03-04 09:16:00,28.7,20.5,30.03,ESE,117,3.0,4.0,71,0.00,,---,0.00,VWS V14.01,2013-03-04 15:16:00,
2013-03-04 09:18:00,28.5,20.0,30.03,ESE,122,1.0,3.0,70,0.00,,---,0.00,VWS V14.01,2013-03-04 15:18:00,
2013-03-04 09:20:00,28.5,20.0,30.03,SE,131,1.0,1.0,70,0.00,,---,0.00,VWS V14.01,2013-03-04 15:20:00,
2013-03-04 09:21:00,28.7,20.2,30.03,SE,141,3.0,3.0,70,0.00,,---,0.00,VWS V14.01,2013-03-04 15:21:00,
2013-03-04 09:22:00,28.7,20.2,30.03,ESE,117,3.0,4.0,70,0.00,,---,0.00,VWS V14.01,2013-03-04 15:22:00,
2013-03-04 09:25:00,28.8,20.3,30.03,SE,125,1.0,3.0,70,0.00,,---,0.00,VWS V14.01,2013-03-04 15:25:00,
2013-03-04 09:26:00,28.8,19.9,30.03,East,94,2.0,3.0,69,0.00,,---,0.00,VWS V14.01,2013-03-04 15:26:00,
2013-03-04 09:27:00,28.8,19.9,30.03,ESE,112,1.0,2.0,69,0.00,,---,0.00,VWS V14.01,2013-03-04 15:27:00,
2013-03-04 09:28:00,28.8,19.9,30.03,East,94,3.0,3.0,69,0.00,,---,0.00,VWS V14.01,2013-03-04 15:28:00,
2013-03-04 09:31:00,28.8,19.9,30.03,SE,129,4.0,4.0,69,0.00,,---,0.00,VWS V14.01,2013-03-04 15:31:00,
2013-03-04 09:32:00,28.7,19.8,30.03,ESE,103,2.0,4.0,69,0.00,,---,0.00,VWS V14.01,2013-03-04 15:32:00,
2013-03-04 09:33:00,28.7,19.8,30.03,East,90,2.0,4.0,69,0.00,,---,0.00,VWS V14.01,2013-03-04 15:33:00,
2013-03-04 09:34:00,28.7,19.8,30.03,SE,136,2.0,2.0,69,0.00,,---,0.00,VWS V14.01,2013-03-04 15:34:00,
2013-03-04 09:36:00,28.7,19.8,30.03,ESE,108,3.0,3.0,69,0.00,,---,0.00,VWS V14.01,2013-03-04 15:36:00,
2013-03-04 09:38:00,28.7,20.2,30.03,ESE,114,0.0,3.0,70,0.00,,---,0.00,VWS V14.01,2013-03-04 15:38:00,
2013-03-04 09:40:00,28.7,20.2,30.03,SE,127,2.0,2.0,70,0.00,,---,0.00,VWS V14.01,2013-03-04 15:40:00,
2013-03-04 09:41:00,28.8,20.3,30.03,East,86,2.0,3.0,70,0.00,,---,0.00,VWS V14.01,2013-03-04 15:41:00,
2013-03-04 09:42:00,28.8,20.3,30.03,ENE,72,2.0,2.0,70,0.00,,---,0.00,VWS V14.01,2013-03-04 15:42:00,
2013-03-04 09:43:00,28.8,20.3,30.03,SE,128,3.0,3.0,70,0.00,,---,0.00,VWS V14.01,2013-03-04 15:43:00,
2013-03-04 09:45:00,28.8,20.3,30.03,East,81,1.0,1.0,70,0.00,,---,0.00,VWS V14.01,2013-03-04 15:45:00,
2013-03-04 09:47:00,28.8,20.3,30.03,East,96,3.0,3.0,70,0.00,,---,0.00,VWS V14.01,2013-03-04 15:47:00,
2013-03-04 09:49:00,29.0,20.5,30.03,ESE,102,0.0,2.0,70,0.00,,---,0.00,VWS V14.01,2013-03-04 15:49:00,
2013-03-04 09:52:00,29.0,20.5,30.03,SE,136,3.0,3.0,70,0.00,,---,0.00,VWS V14.01,2013-03-04 15:52:00,
2013-03-04 09:53:00,29.0,20.5,30.03,SE,139,6.0,6.0,70,0.00,,---,0.00,VWS V14.01,2013-03-04 15:53:00,
2013-03-04 09:55:00,29.0,20.1,30.03,ESE,111,1.0,2.0,69,0.00,,---,0.00,VWS V14.01,2013-03-04 15:55:00,
2013-03-04 09:58:00,29.0,20.1,30.03,SE,145,1.0,4.0,69,0.00,,---,0.00,VWS V14.01,2013-03-04 15:58:00,
2013-03-04 09:59:00,29.0,20.1,30.02,SE,145,1.0,1.0,69,0.00,,---,0.00,VWS V14.01,2013-03-04 15:59:00,
2013-03-04 10:01:00,29.0,20.1,30.02,ESE,110,2.0,3.0,69,0.00,,---,0.00,VWS V14.01,2013-03-04 16:01:00,
2013-03-04 10:05:00,29.3,20.7,30.02,East,91,2.0,3.0,70,0.00,,---,0.00,VWS V14.01,2013-03-04 16:05:00,
2013-03-04 10:06:00,29.3,20.4,30.02,SE,136,1.0,6.0,69,0.00,,---,0.00,VWS V14.01,2013-03-04 16:06:00,
2013-03-04 10:07:00,29.3,20.4,30.02,East,86,0.0,2.0,69,0.00,,---,0.00,VWS V14.01,2013-03-04 16:07:00,
2013-03-04 10:09:00,29.4,20.5,30.02,SSE,148,3.0,5.0,69,0.00,,---,0.00,VWS V14.01,2013-03-04 16:09:00,
2013-03-04 10:10:00,29.4,20.5,30.02,SSE,150,2.0,4.0,69,0.00,,---,0.00,VWS V14.01,2013-03-04 16:10:00,
2013-03-04 10:13:00,29.4,20.2,30.02,SE,131,4.0,5.0,68,0.00,,---,0.00,VWS V14.01,2013-03-04 16:13:00,
2013-03-04 10:14:00,29.4,20.2,30.01,ESE,103,2.0,2.0,68,0.00,,---,0.00,VWS V14.01,2013-03-04 16:14:00,
2013-03-04 10:16:00,29.5,20.6,30.01,ESE,120,2.0,4.0,69,0.00,,---,0.00,VWS V14.01,2013-03-04 16:16:00,
2013-03-04 10:18:00,29.5,20.3,30.01,ESE,123,4.0,4.0,68,0.00,,---,0.00,VWS V14.01,2013-03-04 16:18:00,
2013-03-04 10:19:00,29.5,20.3,30.01,ESE,105,1.0,5.0,68,0.00,,---,0.00,VWS V14.01,2013-03-04 16:19:00,
2013-03-04 10:20:00,29.5,20.3,30.01,SE,127,2.0,5.0,68,0.00,,---,0.00,VWS V14.01,2013-03-04 16:20:00,
2013-03-04 10:21:00,29.5,20.3,30.01,East,93,1.0,5.0,68,0.00,,---,0.00,VWS V14.01,2013-03-04 16:21:00,
2013-03-04 10:23:00,29.7,20.5,30.01,SSE,154,1.0,5.0,68,0.00,,---,0.00,VWS V14.01,2013-03-04 16:23:00,
2013-03-04 10:24:00,29.7,20.5,30.01,ESE,110,0.0,3.0,68,0.00,,---,0.00,VWS V14.01,2013-03-04 16:24:00,
2013-03-04 10:27:00,29.8,20.9,30.01,SSE,153,4.0,4.0,69,0.00,,---,0.00,VWS V14.01,2013-03-04 16:27:00,
2013-03-04 10:28:00,29.8,20.5,30.01,East,93,3.0,4.0,68,0.00,,---,0.00,VWS V14.01,2013-03-04 16:28:00,
2013-03-04 10:30:00,29.8,20.5,30.01,ESE,116,3.0,4.0,68,0.00,,---,0.00,VWS V14.01,2013-03-04 16:30:00,
2013-03-04 10:31:00,29.8,20.5,30.01,SE,125,3.0,5.0,68,0.00,,---,0.00,VWS V14.01,2013-03-04 16:31:00,
2013-03-04 10:32:00,29.8,20.5,30.01,East,85,2.0,3.0,68,0.00,,---,0.00,VWS V14.01,2013-03-04 16:32:00,
2013-03-04 10:33:00,29.8,20.5,30.01,East,88,0.0,2.0,68,0.00,,---,0.00,VWS V14.01,2013-03-04 16:33:00,
2013-03-04 10:35:00,30.0,20.7,30.01,East,89,1.0,3.0,68,0.00,,---,0.00,VWS V14.01,2013-03-04 16:35:00,
2013-03-04 10:38:00,30.1,20.8,30.01,East,84,4.0,4.0,68,0.00,,---,0.00,VWS V14.01,2013-03-04 16:38:00,
2013-03-04 10:39:00,30.1,20.8,30.01,ESE,107,2.0,2.0,68,0.00,,---,0.00,VWS V14.01,2013-03-04 16:39:00,
2013-03-04 10:40:00,30.3,21.0,30.01,ESE,113,2.0,2.0,68,0.00,,---,0.00,VWS V14.01,2013-03-04 16:40:00,
2013-03-04 10:43:00,30.4,21.1,30.01,ESE,111,3.0,3.0,68,0.00,,---,0.00,VWS V14.01,2013-03-04 16:43:00,
2013-03-04 10:44:00,30.4,21.1,30.01,ESE,103,3.0,5.0,68,0.00,,---,0.00,VWS V14.01,2013-03-04 16:44:00,
2013-03-04 10:45:00,30.4,21.1,30.01,SE,133,2.0,2.0,68,0.00,,---,0.00,VWS V14.01,2013-03-04 16:45:00,
2013-03-04 10:46:00,30.4,21.1,30.01,SSE,148,1.0,2.0,68,0.00,,---,0.00,VWS V14.01,2013-03-04 16:46:00,
2013-03-04 10:48:00,30.4,20.8,30.01,SE,131,2.0,4.0,67,0.00,,---,0.00,VWS V14.01,2013-03-04 16:48:00,
2013-03-04 10:50:00,30.6,21.0,30.01,East,98,0.0,1.0,67,0.00,,---,0.00,VWS V14.01,2013-03-04 16:50:00,
2013-03-04 10:51:00,30.7,21.1,30.01,ESE,114,3.0,4.0,67,0.00,,---,0.00,VWS V14.01,2013-03-04 16:51:00,
2013-03-04 10:52:00,30.9,21.2,30.01,ESE,102,1.0,2.0,67,0.00,,---,0.00,VWS V14.01,2013-03-04 16:52:00,
2013-03-04 10:55:00,31.2,21.5,30.01,SE,131,0.0,3.0,67,0.00,,---,0.00,VWS V14.01,2013-03-04 16:55:00,
2013-03-04 10:56:00,31.3,21.6,30.01,ESE,113,2.0,3.0,67,0.00,,---,0.00,VWS V14.01,2013-03-04 16:56:00,
2013-03-04 10:57:00,31.5,21.8,30.01,SE,129,2.0,3.0,67,0.00,,---,0.00,VWS V14.01,2013-03-04 16:57:00,
2013-03-04 11:01:00,31.8,21.8,30.01,South,169,2.0,3.0,66,0.00,,---,0.00,VWS V14.01,2013-03-04 17:01:00,
2013-03-04 11:02:00,31.8,21.4,30.01,SE,131,1.0,3.0,65,0.00,,---,0.00,VWS V14.01,2013-03-04 17:02:00,
2013-03-04 11:04:00,31.8,21.4,30.01,East,97,1.0,3.0,65,0.00,,---,0.00,VWS V14.01,2013-03-04 17:04:00,
2013-03-04 11:05:00,31.8,21.4,30.01,East,82,3.0,4.0,65,0.00,,---,0.00,VWS V14.01,2013-03-04 17:05:00,
2013-03-04 11:06:00,31.9,21.1,30.01,South,191,1.0,3.0,64,0.00,,---,0.00,VWS V14.01,2013-03-04 17:06:00,
2013-03-04 11:07:00,31.9,21.1,30.01,SSW,198,2.0,4.0,64,0.00,,---,0.00,VWS V14.01,2013-03-04 17:07:00,
2013-03-04 11:09:00,31.9,21.1,30.01,SE,136,4.0,5.0,64,0.00,,---,0.00,VWS V14.01,2013-03-04 17:09:00,
2013-03-04 11:10:00,31.9,21.1,30.01,SE,136,1.0,4.0,64,0.00,,---,0.00,VWS V14.01,2013-03-04 17:10:00,
2013-03-04 11:14:00,32.4,21.6,30.00,SE,135,2.0,3.0,64,0.00,,---,0.00,VWS V14.01,2013-03-04 17:14:00,
2013-03-04 11:15:00,32.4,21.6,30.00,East,90,1.0,2.0,64,0.00,,---,0.00,VWS V14.01,2013-03-04 17:15:00,
2013-03-04 11:16:00,32.5,21.3,30.00,SE,142,3.0,3.0,63,0.00,,---,0.00,VWS V14.01,2013-03-04 17:16:00,
2013-03-04 11:17:00,32.5,21.3,30.00,SE,146,4.0,4.0,63,0.00,,---,0.00,VWS V14.01,2013-03-04 17:17:00,
2013-03-04 11:19:00,32.4,21.2,30.00,SE,127,4.0,5.0,63,0.00,,---,0.00,VWS V14.01,2013-03-04 17:19:00,
2013-03-04 11:20:00,32.4,21.2,30.00,ESE,102,0.0,4.0,63,0.00,,---,0.00,VWS V14.01,2013-03-04 17:20:00,
2013-03-04 11:21:00,32.4,21.6,30.00,ESE,104,1.0,2.0,64,0.00,,---,0.00,VWS V14.01,2013-03-04 17:21:00,
2013-03-04 11:22:00,32.4,21.6,30.00,ESE,115,2.0,2.0,64,0.00,,---,0.00,VWS V14.01,2013-03-04 17:22:00,
2013-03-04 11:25:00,32.7,22.2,30.00,East,94,2.0,3.0,65,0.00,,---,0.00,VWS V14.01,2013-03-04 17:25:00,
2013-03-04 11:26:00,32.9,22.4,30.00,SE,137,1.0,2.0,65,0.00,,---,0.00,VWS V14.01,2013-03-04 17:26:00,
2013-03-04 11:28:00,33.1,22.6,30.00,SE,127,2.0,2.0,65,0.00,,---,0.00,VWS V14.01,2013-03-04 17:28:00,
2013-03-04 11:30:00,33.2,22.7,29.99,ESE,106,2.0,2.0,65,0.00,,---,0.00,VWS V14.01,2013-03-04 17:30:00,
2013-03-04 11:31:00,33.4,22.9,29.99,SE,131,5.0,6.0,65,0.00,,---,0.00,VWS V14.01,2013-03-04 17:31:00,
2013-03-04 11:33:00,33.5,22.3,29.99,SSE,161,2.0,3.0,63,0.00,,---,0.00,VWS V14.01,2013-03-04 17:33:00,
2013-03-04 11:35:00,33.5,22.6,29.99,ESE,122,2.0,2.0,64,0.00,,---,0.00,VWS V14.01,2013-03-04 17:35:00,
2013-03-04 11:36:00,33.7,22.8,29.99,ESE,114,2.0,3.0,64,0.00,,---,0.00,VWS V14.01,2013-03-04 17:36:00,
2013-03-04 11:38:00,34.0,23.1,29.99,SE,126,3.0,4.0,64,0.00,,---,0.00,VWS V14.01,2013-03-04 17:38:00,
2013-03-04 11:40:00,34.1,22.5,29.99,SE,135,2.0,4.0,62,0.00,,---,0.00,VWS V14.01,2013-03-04 17:40:00,
2013-03-04 11:41:00,34.1,22.5,29.99,SE,130,3.0,3.0,62,0.00,,---,0.00,VWS V14.01,2013-03-04 17:41:00,
2013-03-04 11:42:00,34.0,22.4,29.99,ESE,111,2.0,3.0,62,0.00,,---,0.00,VWS V14.01,2013-03-04 17:42:00,
2013-03-04 11:45:00,33.8,21.4,29.99,ESE,109,3.0,4.0,60,0.00,,---,0.00,VWS V14.01,2013-03-04 17:45:00,
2013-03-04 11:47:00,33.8,21.8,29.99,SE,143,2.0,2.0,61,0.00,,---,0.00,VWS V14.01,2013-03-04 17:47:00,
2013-03-04 11:48:00,34.0,22.4,29.99,SSE,159,1.0,4.0,62,0.00,,---,0.00,VWS V14.01,2013-03-04 17:48:00,
2013-03-04 11:50:00,34.0,22.0,29.99,SE,137,4.0,4.0,61,0.00,,---,0.00,VWS V14.01,2013-03-04 17:50:00,
2013-03-04 11:52:00,33.8,21.0,29.99,ESE,103,2.0,3.0,59,0.00,,---,0.00,VWS V14.01,2013-03-04 17:52:00,
2013-03-04 11:54:00,33.8,21.0,29.99,SSE,150,1.0,2.0,59,0.00,,---,0.00,VWS V14.01,2013-03-04 17:54:00,
2013-03-04 11:56:00,33.8,21.0,29.99,East,88,2.0,3.0,59,0.00,,---,0.00,VWS V14.01,2013-03-04 17:56:00,
2013-03-04 11:58:00,33.7,20.5,29.99,ESE,102,3.0,5.0,58,0.00,,---,0.00,VWS V14.01,2013-03-04 17:58:00,
2013-03-04 11:59:00,33.7,20.5,29.99,ESE,115,0.0,3.0,58,0.00,,---,0.00,VWS V14.01,2013-03-04 17:59:00,
2013-03-04 12:03:00,33.5,20.7,29.99,ESE,103,1.0,1.0,59,0.00,,---,0.00,VWS V14.01,2013-03-04 18:03:00,
2013-03-04 12:04:00,33.5,20.7,29.99,SE,131,2.0,3.0,59,0.00,,---,0.00,VWS V14.01,2013-03-04 18:04:00,
2013-03-04 12:05:00,33.5,20.7,29.99,ESE,121,1.0,4.0,59,0.00,,---,0.00,VWS V14.01,2013-03-04 18:05:00,
2013-03-04 12:08:00,33.5,20.3,29.99,SE,143,2.0,3.0,58,0.00,,---,0.00,VWS V14.01,2013-03-04 18:08:00,
2013-03-04 12:10:00,33.5,20.3,29.99,East,98,2.0,2.0,58,0.00,,---,0.00,VWS V14.01,2013-03-04 18:10:00,
2013-03-04 12:11:00,33.5,19.9,29.99,ESE,121,1.0,2.0,57,0.00,,---,0.00,VWS V14.01,2013-03-04 18:11:00,
2013-03-04 12:14:00,33.5,20.3,29.98,ESE,114,2.0,2.0,58,0.00,,---,0.00,VWS V14.01,2013-03-04 18:14:00,
2013-03-04 12:15:00,33.5,20.3,29.98,SSW,200,1.0,3.0,58,0.00,,---,0.00,VWS V14.01,2013-03-04 18:15:00,
2013-03-04 12:16:00,33.5,20.7,29.98,South,188,1.0,2.0,59,0.00,,---,0.00,VWS V14.01,2013-03-04 18:16:00,
2013-03-04 12:19:00,33.7,21.3,29.98,SE,133,4.0,4.0,60,0.00,,---,0.00,VWS V14.01,2013-03-04 18:19:00,
2013-03-04 12:22:00,33.8,21.0,29.98,SE,139,0.0,2.0,59,0.00,,---,0.00,VWS V14.01,2013-03-04 18:22:00,
2013-03-04 12:23:00,33.8,21.4,29.98,ESE,109,2.0,2.0,60,0.00,,---,0.00,VWS V14.01,2013-03-04 18:23:00,
2013-03-04 12:26:00,33.8,21.0,29.98,SE,127,3.0,3.0,59,0.00,,---,0.00,VWS V14.01,2013-03-04 18:26:00,
2013-03-04 12:27:00,33.8,21.0,29.98,South,172,1.0,3.0,59,0.00,,---,0.00,VWS V14.01,2013-03-04 18:27:00,
2013-03-04 12:28:00,33.7,20.9,29.98,SSE,164,0.0,2.0,59,0.00,,---,0.00,VWS V14.01,2013-03-04 18:28:00,
2013-03-04 12:29:00,33.8,21.0,29.98,SE,140,2.0,3.0,59,0.00,,---,0.00,VWS V14.01,2013-03-04 18:29:00,
2013-03-04 12:31:00,33.8,21.4,29.98,ESE,110,0.0,3.0,60,0.00,,---,0.00,VWS V14.01,2013-03-04 18:31:00,
2013-03-04 12:32:00,33.8,21.4,29.98,ESE,110,0.0,3.0,60,0.00,,---,0.00,VWS V14.01,2013-03-04 18:32:00,
2013-03-04 12:34:00,33.8,21.4,29.98,SSE,162,1.0,5.0,60,0.00,,---,0.00,VWS V14.01,2013-03-04 18:34:00,
2013-03-04 12:36:00,33.8,21.4,29.98,SE,134,1.0,2.0,60,0.00,,---,0.00,VWS V14.01,2013-03-04 18:36:00,
2013-03-04 12:37:00,33.8,21.4,29.98,SE,134,0.0,1.0,60,0.00,,---,0.00,VWS V14.01,2013-03-04 18:37:00,
2013-03-04 12:40:00,33.8,21.4,29.98,SE,134,3.0,3.0,60,0.00,,---,0.00,VWS V14.01,2013-03-04 18:40:00,
2013-03-04 12:41:00,33.8,21.0,29.98,South,173,2.0,3.0,59,0.00,,---,0.00,VWS V14.01,2013-03-04 18:41:00,
2013-03-04 12:44:00,33.8,21.0,29.98,ESE,114,1.0,3.0,59,0.00,,---,0.00,VWS V14.01,2013-03-04 18:44:00,
2013-03-04 12:45:00,33.8,21.0,29.98,ESE,105,2.0,3.0,59,0.00,,---,0.00,VWS V14.01,2013-03-04 18:45:00,
2013-03-04 12:46:00,33.8,20.6,29.98,SE,132,3.0,3.0,58,0.00,,---,0.00,VWS V14.01,2013-03-04 18:46:00,
2013-03-04 12:50:00,33.7,20.5,29.98,SE,124,2.0,2.0,58,0.00,,---,0.00,VWS V14.01,2013-03-04 18:50:00,
2013-03-04 12:51:00,33.7,20.9,29.98,SE,130,1.0,1.0,59,0.00,,---,0.00,VWS V14.01,2013-03-04 18:51:00,
2013-03-04 12:53:00,33.7,20.9,29.98,SW,214,2.0,2.0,59,0.00,,---,0.00,VWS V14.01,2013-03-04 18:53:00,
2013-03-04 12:55:00,33.7,20.9,29.98,East,90,0.0,0.0,59,0.00,,---,0.00,VWS V14.01,2013-03-04 18:55:00,
2013-03-04 12:56:00,33.7,20.9,29.98,East,90,0.0,0.0,59,0.00,,---,0.00,VWS V14.01,2013-03-04 18:56:00,
2013-03-04 12:57:00,33.8,21.0,29.98,ESE,107,1.0,3.0,59,0.00,,---,0.00,VWS V14.01,2013-03-04 18:57:00,
2013-03-04 12:59:00,33.8,21.0,29.97,ESE,108,0.0,0.0,59,0.00,,---,0.00,VWS V14.01,2013-03-04 18:59:00,
2013-03-04 13:01:00,34.0,21.2,29.97,ESE,113,2.0,2.0,59,0.00,,---,0.00,VWS V14.01,2013-03-04 19:01:00,
2013-03-04 13:02:00,34.0,21.2,29.97,ESE,122,2.0,3.0,59,0.00,,---,0.00,VWS V14.01,2013-03-04 19:02:00,
2013-03-04 13:03:00,34.0,21.2,29.97,ESE,102,2.0,3.0,59,0.00,,---,0.00,VWS V14.01,2013-03-04 19:03:00,
2013-03-04 13:04:00,34.0,21.2,29.97,ESE,103,2.0,3.0,59,0.00,,---,0.00,VWS V14.01,2013-03-04 19:04:00,
2013-03-04 13:06:00,34.0,21.2,29.97,ESE,108,1.0,2.0,59,0.00,,---,0.00,VWS V14.01,2013-03-04 19:06:00,
2013-03-04 13:09:00,34.0,21.2,29.97,ESE,122,3.0,6.0,59,0.00,,---,0.00,VWS V14.01,2013-03-04 19:09:00,
2013-03-04 13:11:00,34.0,21.2,29.97,SE,131,4.0,4.0,59,0.00,,---,0.00,VWS V14.01,2013-03-04 19:11:00,
2013-03-04 13:14:00,33.8,20.6,29.96,SSW,210,2.0,3.0,58,0.00,,---,0.00,VWS V14.01,2013-03-04 19:14:00,
2013-03-04 13:15:00,33.7,20.9,29.96,SE,129,2.0,3.0,59,0.00,,---,0.00,VWS V14.01,2013-03-04 19:15:00,
2013-03-04 13:17:00,33.7,20.9,29.96,ESE,107,1.0,2.0,59,0.00,,---,0.00,VWS V14.01,2013-03-04 19:17:00,
2013-03-04 13:19:00,33.8,21.0,29.96,SE,124,2.0,5.0,59,0.00,,---,0.00,VWS V14.01,2013-03-04 19:19:00,
2013-03-04 13:20:00,33.8,21.0,29.96,SSE,150,3.0,3.0,59,0.00,,---,0.00,VWS V14.01,2013-03-04 19:20:00,
2013-03-04 13:21:00,33.8,21.0,29.96,East,83,3.0,3.0,59,0.00,,---,0.00,VWS V14.01,2013-03-04 19:21:00,
2013-03-04 13:22:00,33.8,21.0,29.96,ENE,68,2.0,2.0,59,0.00,,---,0.00,VWS V14.01,2013-03-04 19:22:00,
2013-03-04 13:26:00,33.8,20.6,29.96,SE,136,2.0,3.0,58,0.00,,---,0.00,VWS V14.01,2013-03-04 19:26:00,
2013-03-04 13:27:00,33.8,21.0,29.96,SE,132,1.0,2.0,59,0.00,,---,0.00,VWS V14.01,2013-03-04 19:27:00,
2013-03-04 13:31:00,34.0,21.2,29.95,ESE,104,1.0,3.0,59,0.00,,---,0.00,VWS V14.01,2013-03-04 19:31:00,
2013-03-04 13:32:00,34.0,21.2,29.95,ESE,104,0.0,1.0,59,0.00,,---,0.00,VWS V14.01,2013-03-04 19:32:00,
2013-03-04 13:33:00,34.0,21.2,29.95,ESE,116,1.0,2.0,59,0.00,,---,0.00,VWS V14.01,2013-03-04 19:33:00,
2013-03-04 13:35:00,34.1,21.3,29.95,ESE,122,3.0,3.0,59,0.00,,---,0.00,VWS V14.01,2013-03-04 19:35:00,
2013-03-04 13:37:00,34.1,21.3,29.95,SE,145,2.0,3.0,59,0.00,,---,0.00,VWS V14.01,2013-03-04 19:37:00,
2013-03-04 13:39:00,34.1,21.3,29.95,SE,124,2.0,3.0,59,0.00,,---,0.00,VWS V14.01,2013-03-04 19:39:00,
2013-03-04 13:40:00,34.1,21.3,29.95,ESE,113,2.0,3.0,59,0.00,,---,0.00,VWS V14.01,2013-03-04 19:40:00,
2013-03-04 13:42:00,34.3,21.5,29.95,SE,127,0.0,2.0,59,0.00,,---,0.00,VWS V14.01,2013-03-04 19:42:00,
2013-03-04 13:44:00,34.4,22.0,29.95,East,91,1.0,3.0,60,0.00,,---,0.00,VWS V14.01,2013-03-04 19:44:00,
2013-03-04 13:46:00,34.6,21.8,29.95,ESE,110,2.0,2.0,59,0.00,,---,0.00,VWS V14.01,2013-03-04 19:46:00,
2013-03-04 13:47:00,34.7,21.9,29.95,ESE,114,1.0,3.0,59,0.00,,---,0.00,VWS V14.01,2013-03-04 19:47:00,
2013-03-04 13:48:00,34.7,21.9,29.95,NE,49,2.0,2.0,59,0.00,,---,0.00,VWS V14.01,2013-03-04 19:48:00,
2013-03-04 13:49:00,34.7,21.9,29.95,ESE,115,1.0,3.0,59,0.00,,---,0.00,VWS V14.01,2013-03-04 19:49:00,
2013-03-04 13:52:00,34.7,21.5,29.95,SE,129,1.0,3.0,58,0.00,,---,0.00,VWS V14.01,2013-03-04 19:52:00,
2013-03-04 13:53:00,34.7,21.5,29.95,ESE,120,1.0,1.0,58,0.00,,---,0.00,VWS V14.01,2013-03-04 19:53:00,
2013-03-04 13:54:00,34.7,21.5,29.95,SE,145,0.0,2.0,58,0.00,,---,0.00,VWS V14.01,2013-03-04 19:54:00,
2013-03-04 13:58:00,34.7,21.5,29.95,East,79,2.0,3.0,58,0.00,,---,0.00,VWS V14.01,2013-03-04 19:58:00,
2013-03-04 13:59:00,34.9,21.6,29.94,East,79,1.0,2.0,58,0.00,,---,0.00,VWS V14.01,2013-03-04 19:59:00,
2013-03-04 14:01:00,34.9,21.6,29.94,East,84,2.0,2.0,58,0.00,,---,0.00,VWS V14.01,2013-03-04 20:01:00,
2013-03-04 14:03:00,35.0,21.7,29.94,SSE,147,1.0,1.0,58,0.00,,---,0.00,VWS V14.01,2013-03-04 20:03:00,
2013-03-04 14:04:00,35.2,22.3,29.94,East,88,1.0,2.0,59,0.00,,---,0.00,VWS V14.01,2013-03-04 20:04:00,
2013-03-04 14:06:00,35.2,21.9,29.94,SE,127,0.0,2.0,58,0.00,,---,0.00,VWS V14.01,2013-03-04 20:06:00,
2013-03-04 14:07:00,35.2,21.5,29.94,SE,127,2.0,2.0,57,0.00,,---,0.00,VWS V14.01,2013-03-04 20:07:00,
2013-03-04 14:10:00,35.2,21.1,29.94,East,82,3.0,5.0,56,0.00,,---,0.00,VWS V14.01,2013-03-04 20:10:00,
2013-03-04 14:11:00,35.2,20.7,29.94,East,90,4.0,4.0,55,0.00,,---,0.00,VWS V14.01,2013-03-04 20:11:00,
2013-03-04 14:13:00,35.2,21.1,29.94,SE,125,1.0,1.0,56,0.00,,---,0.00,VWS V14.01,2013-03-04 20:13:00,
2013-03-04 14:15:00,35.2,21.1,29.94,SSE,154,0.0,2.0,56,0.00,,---,0.00,VWS V14.01,2013-03-04 20:15:00,
2013-03-04 14:17:00,35.2,21.1,29.94,ESE,110,2.0,4.0,56,0.00,,---,0.00,VWS V14.01,2013-03-04 20:17:00,
2013-03-04 14:18:00,35.2,21.1,29.94,ESE,108,3.0,3.0,56,0.00,,---,0.00,VWS V14.01,2013-03-04 20:18:00,
2013-03-04 14:21:00,35.2,21.5,29.94,ESE,107,1.0,1.0,57,0.00,,---,0.00,VWS V14.01,2013-03-04 20:21:00,
2013-03-04 14:22:00,35.2,21.5,29.94,East,97,3.0,3.0,57,0.00,,---,0.00,VWS V14.01,2013-03-04 20:22:00,
2013-03-04 14:24:00,35.3,21.6,29.94,East,98,2.0,3.0,57,0.00,,---,0.00,VWS V14.01,2013-03-04 20:24:00,
2013-03-04 14:25:00,35.3,21.6,29.94,East,98,1.0,2.0,57,0.00,,---,0.00,VWS V14.01,2013-03-04 20:25:00,
2013-03-04 14:28:00,35.5,21.0,29.94,SSE,147,3.0,3.0,55,0.00,,---,0.00,VWS V14.01,2013-03-04 20:28:00,
2013-03-04 14:31:00,35.3,20.8,29.94,SE,141,3.0,3.0,55,0.00,,---,0.00,VWS V14.01,2013-03-04 20:31:00,
2013-03-04 14:32:00,35.3,20.8,29.94,East,96,2.0,4.0,55,0.00,,---,0.00,VWS V14.01,2013-03-04 20:32:00,
2013-03-04 14:34:00,35.3,20.8,29.94,ESE,111,1.0,1.0,55,0.00,,---,0.00,VWS V14.01,2013-03-04 20:34:00,
2013-03-04 14:35:00,35.3,20.8,29.94,ENE,76,0.0,0.0,55,0.00,,---,0.00,VWS V14.01,2013-03-04 20:35:00,
2013-03-04 14:36:00,35.5,21.4,29.94,ENE,58,1.0,2.0,56,0.00,,---,0.00,VWS V14.01,2013-03-04 20:36:00,
2013-03-04 14:37:00,35.5,21.4,29.94,SE,124,3.0,3.0,56,0.00,,---,0.00,VWS V14.01,2013-03-04 20:37:00,
2013-03-04 14:40:00,35.5,21.0,29.94,South,169,3.0,4.0,55,0.00,,---,0.00,VWS V14.01,2013-03-04 20:40:00,
2013-03-04 14:41:00,35.3,20.3,29.94,ESE,111,1.0,4.0,54,0.00,,---,0.00,VWS V14.01,2013-03-04 20:41:00,
2013-03-04 14:42:00,35.3,20.3,29.94,East,87,1.0,1.0,54,0.00,,---,0.00,VWS V14.01,2013-03-04 20:42:00,
2013-03-04 14:46:00,35.5,21.4,29.94,SE,132,0.0,1.0,56,0.00,,---,0.00,VWS V14.01,2013-03-04 20:46:00,
2013-03-04 14:47:00,35.5,21.8,29.94,SE,132,2.0,2.0,57,0.00,,---,0.00,VWS V14.01,2013-03-04 20:47:00,
2013-03-04 14:48:00,35.5,21.4,29.94,East,98,2.0,2.0,56,0.00,,---,0.00,VWS V14.01,2013-03-04 20:48:00,
2013-03-04 14:52:00,35.5,21.4,29.94,SSE,162,2.0,2.0,56,0.00,,---,0.00,VWS V14.01,2013-03-04 20:52:00,
2013-03-04 14:54:00,35.5,21.4,29.94,SE,135,0.0,3.0,56,0.00,,---,0.00,VWS V14.01,2013-03-04 20:54:00,
2013-03-04 14:55:00,35.3,20.8,29.94,ESE,111,0.0,3.0,55,0.00,,---,0.00,VWS V14.01,2013-03-04 20:55:00,
2013-03-04 14:58:00,35.5,21.4,29.94,ESE,116,1.0,3.0,56,0.00,,---,0.00,VWS V14.01,2013-03-04 20:58:00,
2013-03-04 14:59:00,35.5,21.4,29.93,East,86,1.0,2.0,56,0.00,,---,0.00,VWS V14.01,2013-03-04 20:59:00,
2013-03-04 15:01:00,35.5,21.4,29.93,East,86,0.0,0.0,56,0.00,,---,0.00,VWS V14.01,2013-03-04 21:01:00,
2013-03-04 15:03:00,35.6,22.3,29.93,East,94,0.0,2.0,58,0.00,,---,0.00,VWS V14.01,2013-03-04 21:03:00,
2013-03-04 15:04:00,35.6,22.3,29.93,East,94,0.0,0.0,58,0.00,,---,0.00,VWS V14.01,2013-03-04 21:04:00,
2013-03-04 15:06:00,35.6,21.9,29.93,East,98,1.0,2.0,57,0.00,,---,0.00,VWS V14.01,2013-03-04 21:06:00,
2013-03-04 15:09:00,35.6,21.9,29.93,ESE,113,2.0,3.0,57,0.00,,---,0.00,VWS V14.01,2013-03-04 21:09:00,
2013-03-04 15:10:00,35.6,21.9,29.93,ENE,65,2.0,3.0,57,0.00,,---,0.00,VWS V14.01,2013-03-04 21:10:00,
2013-03-04 15:12:00,35.5,21.4,29.93,ESE,119,3.0,5.0,56,0.00,,---,0.00,VWS V14.01,2013-03-04 21:12:00,
2013-03-04 15:13:00,35.5,21.4,29.93,ESE,118,2.0,5.0,56,0.00,,---,0.00,VWS V14.01,2013-03-04 21:13:00,
2013-03-04 15:14:00,35.3,21.2,29.93,SSE,168,3.0,4.0,56,0.00,,---,0.00,VWS V14.01,2013-03-04 21:14:00,
2013-03-04 15:16:00,35.3,21.2,29.93,ESE,119,1.0,4.0,56,0.00,,---,0.00,VWS V14.01,2013-03-04 21:16:00,
2013-03-04 15:19:00,35.3,21.6,29.93,East,86,3.0,3.0,57,0.00,,---,0.00,VWS V14.01,2013-03-04 21:19:00,
2013-03-04 15:20:00,35.3,21.6,29.93,East,86,3.0,3.0,57,0.00,,---,0.00,VWS V14.01,2013-03-04 21:20:00,
2013-03-04 15:21:00,35.3,21.2,29.93,SE,124,2.0,4.0,56,0.00,,---,0.00,VWS V14.01,2013-03-04 21:21:00,
2013-03-04 15:26:00,35.3,21.6,29.93,SE,133,0.0,0.0,57,0.00,,---,0.00,VWS V14.01,2013-03-04 21:26:00,
2013-03-04 15:31:00,35.3,21.6,29.93,East,89,1.0,1.0,57,0.00,,---,0.00,VWS V14.01,2013-03-04 21:31:00,
2013-03-04 15:32:00,35.3,21.6,29.93,ESE,123,1.0,1.0,57,0.00,,---,0.00,VWS V14.01,2013-03-04 21:32:00,
2013-03-04 15:33:00,35.3,21.6,29.93,SE,139,0.0,2.0,57,0.00,,---,0.00,VWS V14.01,2013-03-04 21:33:00,
2013-03-04 15:36:00,35.3,21.6,29.93,East,82,0.0,1.0,57,0.00,,---,0.00,VWS V14.01,2013-03-04 21:36:00,
2013-03-04 15:37:00,35.3,21.2,29.93,East,82,1.0,1.0,56,0.00,,---,0.00,VWS V14.01,2013-03-04 21:37:00,
2013-03-04 15:40:00,35.3,21.6,29.93,East,82,2.0,2.0,57,0.00,,---,0.00,VWS V14.01,2013-03-04 21:40:00,
2013-03-04 15:41:00,35.3,21.6,29.93,SSE,165,0.0,2.0,57,0.00,,---,0.00,VWS V14.01,2013-03-04 21:41:00,
2013-03-04 15:42:00,35.3,22.0,29.93,SSE,165,0.0,0.0,58,0.00,,---,0.00,VWS V14.01,2013-03-04 21:42:00,
2013-03-04 15:47:00,35.3,22.0,29.93,East,82,2.0,2.0,58,0.00,,---,0.00,VWS V14.01,2013-03-04 21:47:00,
2013-03-04 15:48:00,35.3,21.6,29.93,ESE,120,2.0,3.0,57,0.00,,---,0.00,VWS V14.01,2013-03-04 21:48:00,
2013-03-04 15:52:00,35.3,21.2,29.93,ESE,117,2.0,2.0,56,0.00,,---,0.00,VWS V14.01,2013-03-04 21:52:00,
2013-03-04 15:53:00,35.3,21.2,29.93,SSE,153,2.0,2.0,56,0.00,,---,0.00,VWS V14.01,2013-03-04 21:53:00,
2013-03-04 15:57:00,35.2,21.5,29.93,ESE,103,0.0,1.0,57,0.00,,---,0.00,VWS V14.01,2013-03-04 21:57:00,
2013-03-04 15:58:00,35.2,21.5,29.93,ESE,110,0.0,1.0,57,0.00,,---,0.00,VWS V14.01,2013-03-04 21:58:00,
2013-03-04 15:59:00,35.2,21.9,29.92,ESE,110,0.0,1.0,58,0.00,,---,0.00,VWS V14.01,2013-03-04 21:59:00,
2013-03-04 16:03:00,35.0,20.9,29.92,SE,137,0.0,3.0,56,0.00,,---,0.00,VWS V14.01,2013-03-04 22:03:00,
2013-03-04 16:04:00,35.0,20.9,29.92,SE,136,0.0,1.0,56,0.00,,---,0.00,VWS V14.01,2013-03-04 22:04:00,
2013-03-04 16:05:00,35.0,20.9,29.92,SE,136,1.0,1.0,56,0.00,,---,0.00,VWS V14.01,2013-03-04 22:05:00,
2013-03-04 16:10:00,34.9,21.2,29.92,ESE,112,0.0,1.0,57,0.00,,---,0.00,VWS V14.01,2013-03-04 22:10:00,
2013-03-04 16:13:00,34.7,21.9,29.92,ESE,117,0.0,0.0,59,0.00,,---,0.00,VWS V14.01,2013-03-04 22:13:00,
2013-03-04 16:15:00,34.7,21.5,29.92,East,81,1.0,2.0,58,0.00,,---,0.00,VWS V14.01,2013-03-04 22:15:00,
2013-03-04 16:18:00,34.6,21.0,29.92,ESE,115,0.0,0.0,57,0.00,,---,0.00,VWS V14.01,2013-03-04 22:18:00,
2013-03-04 16:20:00,34.6,21.0,29.92,ESE,102,2.0,2.0,57,0.00,,---,0.00,VWS V14.01,2013-03-04 22:20:00,
2013-03-04 16:22:00,34.6,21.0,29.92,ESE,107,1.0,1.0,57,0.00,,---,0.00,VWS V14.01,2013-03-04 22:22:00,
2013-03-04 16:24:00,34.6,21.0,29.92,ESE,104,0.0,1.0,57,0.00,,---,0.00,VWS V14.01,2013-03-04 22:24:00,
2013-03-04 16:25:00,34.6,21.0,29.92,ESE,104,0.0,0.0,57,0.00,,---,0.00,VWS V14.01,2013-03-04 22:25:00,
2013-03-04 16:28:00,34.6,21.0,29.92,ESE,122,0.0,0.0,57,0.00,,---,0.00,VWS V14.01,2013-03-04 22:28:00,
2013-03-04 16:30:00,34.6,21.4,29.92,ESE,122,0.0,0.0,58,0.00,,---,0.00,VWS V14.01,2013-03-04 22:30:00,
2013-03-04 16:32:00,34.6,21.8,29.92,ESE,117,0.0,2.0,59,0.00,,---,0.00,VWS V14.01,2013-03-04 22:32:00,
2013-03-04 16:33:00,34.6,21.8,29.92,ESE,117,0.0,0.0,59,0.00,,---,0.00,VWS V14.01,2013-03-04 22:33:00,
2013-03-04 16:35:00,34.6,22.2,29.92,ESE,117,0.0,1.0,60,0.00,,---,0.00,VWS V14.01,2013-03-04 22:35:00,
2013-03-04 16:38:00,34.6,21.8,29.92,ESE,105,1.0,1.0,59,0.00,,---,0.00,VWS V14.01,2013-03-04 22:38:00,
2013-03-04 16:39:00,34.6,21.8,29.92,East,87,2.0,2.0,59,0.00,,---,0.00,VWS V14.01,2013-03-04 22:39:00,
2013-03-04 16:43:00,34.4,21.6,29.92,ESE,120,0.0,2.0,59,0.00,,---,0.00,VWS V14.01,2013-03-04 22:43:00,
2013-03-04 16:44:00,34.4,21.6,29.91,ESE,120,0.0,0.0,59,0.00,,---,0.00,VWS V14.01,2013-03-04 22:44:00,
2013-03-04 16:46:00,34.3,21.9,29.91,ESE,118,1.0,2.0,60,0.00,,---,0.00,VWS V14.01,2013-03-04 22:46:00,
2013-03-04 16:48:00,34.3,21.5,29.91,East,101,1.0,1.0,59,0.00,,---,0.00,VWS V14.01,2013-03-04 22:48:00,
2013-03-04 16:49:00,34.3,21.5,29.91,East,101,0.0,1.0,59,0.00,,---,0.00,VWS V14.01,2013-03-04 22:49:00,
2013-03-04 16:50:00,34.1,21.3,29.91,East,101,1.0,1.0,59,0.00,,---,0.00,VWS V14.01,2013-03-04 22:50:00,
2013-03-04 16:51:00,34.1,21.7,29.91,East,101,1.0,1.0,60,0.00,,---,0.00,VWS V14.01,2013-03-04 22:51:00,
2013-03-04 16:53:00,34.1,21.7,29.91,ESE,113,0.0,0.0,60,0.00,,---,0.00,VWS V14.01,2013-03-04 22:53:00,
2013-03-04 16:56:00,34.1,22.1,29.91,ESE,113,1.0,1.0,61,0.00,,---,0.00,VWS V14.01,2013-03-04 22:56:00,
2013-03-04 16:57:00,34.1,22.1,29.91,ESE,113,1.0,1.0,61,0.00,,---,0.00,VWS V14.01,2013-03-04 22:57:00,
2013-03-04 16:59:00,34.0,22.0,29.91,East,98,0.0,1.0,61,0.00,,---,0.00,VWS V14.01,2013-03-04 22:59:00,
2013-03-04 17:01:00,34.0,22.4,29.91,East,98,1.0,2.0,62,0.00,,---,0.00,VWS V14.01,2013-03-04 23:01:00,
2013-03-04 17:02:00,34.0,22.4,29.91,East,96,1.0,2.0,62,0.00,,---,0.00,VWS V14.01,2013-03-04 23:02:00,
2013-03-04 17:04:00,34.0,22.0,29.91,East,96,0.0,0.0,61,0.00,,---,0.00,VWS V14.01,2013-03-04 23:04:00,
2013-03-04 17:06:00,34.0,22.4,29.91,ESE,110,0.0,1.0,62,0.00,,---,0.00,VWS V14.01,2013-03-04 23:06:00,
2013-03-04 17:08:00,33.8,22.2,29.91,ESE,111,0.0,1.0,62,0.00,,---,0.00,VWS V14.01,2013-03-04 23:08:00,
2013-03-04 17:09:00,33.8,22.2,29.91,ESE,111,0.0,1.0,62,0.00,,---,0.00,VWS V14.01,2013-03-04 23:09:00,
2013-03-04 17:10:00,33.8,22.5,29.91,ESE,111,1.0,1.0,63,0.00,,---,0.00,VWS V14.01,2013-03-04 23:10:00,
2013-03-04 17:12:00,33.8,22.5,29.91,ESE,112,0.0,1.0,63,0.00,,---,0.00,VWS V14.01,2013-03-04 23:12:00,
2013-03-04 17:13:00,33.8,22.5,29.91,North,6,0.0,2.0,63,0.00,,---,0.00,VWS V14.01,2013-03-04 23:13:00,
2013-03-04 17:14:00,33.7,22.5,29.92,ESE,121,1.0,2.0,63,0.00,,---,0.00,VWS V14.01,2013-03-04 23:14:00,
2013-03-04 17:15:00,33.7,22.5,29.92,ESE,121,0.0,2.0,63,0.00,,---,0.00,VWS V14.01,2013-03-04 23:15:00,
2013-03-04 17:18:00,33.5,22.3,29.92,ESE,120,0.0,0.0,63,0.00,,---,0.00,VWS V14.01,2013-03-04 23:18:00,
2013-03-04 17:19:00,33.5,22.6,29.92,ESE,118,1.0,2.0,64,0.00,,---,0.00,VWS V14.01,2013-03-04 23:19:00,
2013-03-04 17:20:00,33.5,22.6,29.92,ESE,118,0.0,1.0,64,0.00,,---,0.00,VWS V14.01,2013-03-04 23:20:00,
2013-03-04 17:24:00,33.4,22.9,29.92,SSE,155,0.0,2.0,65,0.00,,---,0.00,VWS V14.01,2013-03-04 23:24:00,
2013-03-04 17:25:00,33.4,22.9,29.92,SSE,155,0.0,2.0,65,0.00,,---,0.00,VWS V14.01,2013-03-04 23:25:00,
2013-03-04 17:26:00,33.4,22.9,29.92,ESE,123,0.0,1.0,65,0.00,,---,0.00,VWS V14.01,2013-03-04 23:26:00,
2013-03-04 17:27:00,33.4,22.9,29.92,ESE,123,0.0,1.0,65,0.00,,---,0.00,VWS V14.01,2013-03-04 23:27:00,
2013-03-04 17:29:00,33.4,22.9,29.92,East,100,0.0,1.0,65,0.00,,---,0.00,VWS V14.01,2013-03-04 23:29:00,
2013-03-04 17:31:00,33.4,22.9,29.92,East,100,0.0,0.0,65,0.00,,---,0.00,VWS V14.01,2013-03-04 23:31:00,
2013-03-04 17:32:00,33.2,22.7,29.92,East,100,1.0,1.0,65,0.00,,---,0.00,VWS V14.01,2013-03-04 23:32:00,
2013-03-04 17:33:00,33.2,23.1,29.92,East,94,1.0,1.0,66,0.00,,---,0.00,VWS V14.01,2013-03-04 23:33:00,
2013-03-04 17:35:00,33.2,23.1,29.92,East,98,0.0,3.0,66,0.00,,---,0.00,VWS V14.01,2013-03-04 23:35:00,
2013-03-04 17:36:00,33.2,22.7,29.92,East,96,0.0,1.0,65,0.00,,---,0.00,VWS V14.01,2013-03-04 23:36:00,
2013-03-04 17:37:00,33.2,22.7,29.92,East,94,2.0,2.0,65,0.00,,---,0.00,VWS V14.01,2013-03-04 23:37:00,
2013-03-04 17:38:00,33.2,22.7,29.92,East,94,0.0,0.0,65,0.00,,---,0.00,VWS V14.01,2013-03-04 23:38:00,
2013-03-04 17:40:00,33.2,22.7,29.92,East,95,1.0,1.0,65,0.00,,---,0.00,VWS V14.01,2013-03-04 23:40:00,
2013-03-04 17:41:00,33.2,22.7,29.92,ESE,119,0.0,2.0,65,0.00,,---,0.00,VWS V14.01,2013-03-04 23:41:00,
2013-03-04 17:43:00,33.2,23.1,29.92,ESE,117,1.0,1.0,66,0.00,,---,0.00,VWS V14.01,2013-03-04 23:43:00,
2013-03-04 17:46:00,33.2,22.7,29.92,ESE,110,0.0,0.0,65,0.00,,---,0.00,VWS V14.01,2013-03-04 23:46:00,
2013-03-04 17:47:00,33.2,23.1,29.92,ESE,110,0.0,0.0,66,0.00,,---,0.00,VWS V14.01,2013-03-04 23:47:00,
2013-03-04 17:48:00,33.2,23.1,29.92,ESE,110,0.0,0.0,66,0.00,,---,0.00,VWS V14.01,2013-03-04 23:48:00,
2013-03-04 17:49:00,33.2,23.1,29.92,ESE,110,0.0,0.0,66,0.00,,---,0.00,VWS V14.01,2013-03-04 23:49:00,
2013-03-04 17:52:00,33.1,23.0,29.92,ESE,121,0.0,0.0,66,0.00,,---,0.00,VWS V14.01,2013-03-04 23:52:00,
2013-03-04 17:54:00,33.1,23.0,29.92,ESE,121,1.0,1.0,66,0.00,,---,0.00,VWS V14.01,2013-03-04 23:54:00,
2013-03-04 17:55:00,33.1,23.0,29.92,ESE,121,0.0,1.0,66,0.00,,---,0.00,VWS V14.01,2013-03-04 23:55:00,
2013-03-04 17:57:00,33.1,23.0,29.92,ESE,121,0.0,2.0,66,0.00,,---,0.00,VWS V14.01,2013-03-04 23:57:00,
2013-03-04 17:59:00,33.1,23.0,29.92,SE,125,0.0,2.0,66,0.00,,---,0.00,VWS V14.01,2013-03-04 23:59:00,
2013-03-04 18:00:00,33.1,23.0,29.92,SE,125,0.0,2.0,66,0.00,,---,0.00,VWS V14.01,2013-03-05 00:00:00,
2013-03-04 18:01:00,33.1,23.0,29.92,SE,125,0.0,0.0,66,0.00,,---,0.00,VWS V14.01,2013-03-05 00:01:00,
2013-03-04 18:03:00,33.1,23.0,29.92,SE,125,0.0,1.0,66,0.00,,---,0.00,VWS V14.01,2013-03-05 00:03:00,
2013-03-04 18:04:00,33.1,23.4,29.92,SE,125,0.0,0.0,67,0.00,,---,0.00,VWS V14.01,2013-03-05 00:04:00,
2013-03-04 18:05:00,33.1,23.4,29.92,SE,125,0.0,0.0,67,0.00,,---,0.00,VWS V14.01,2013-03-05 00:05:00,
2013-03-04 18:08:00,33.1,23.4,29.92,SE,125,0.0,0.0,67,0.00,,---,0.00,VWS V14.01,2013-03-05 00:08:00,
2013-03-04 18:10:00,33.1,23.4,29.92,SE,125,0.0,0.0,67,0.00,,---,0.00,VWS V14.01,2013-03-05 00:10:00,
2013-03-04 18:11:00,33.1,23.4,29.92,SE,125,0.0,0.0,67,0.00,,---,0.00,VWS V14.01,2013-03-05 00:11:00,
2013-03-04 18:13:00,32.9,23.5,29.92,SE,125,1.0,2.0,68,0.00,,---,0.00,VWS V14.01,2013-03-05 00:13:00,
2013-03-04 18:14:00,32.9,23.5,29.93,SE,125,2.0,2.0,68,0.00,,---,0.00,VWS V14.01,2013-03-05 00:14:00,
2013-03-04 18:17:00,32.9,23.5,29.93,ESE,120,0.0,2.0,68,0.00,,---,0.00,VWS V14.01,2013-03-05 00:17:00,
2013-03-04 18:18:00,32.9,23.5,29.93,East,101,1.0,2.0,68,0.00,,---,0.00,VWS V14.01,2013-03-05 00:18:00,
2013-03-04 18:19:00,32.9,23.2,29.93,ESE,112,1.0,1.0,67,0.00,,---,0.00,VWS V14.01,2013-03-05 00:19:00,
2013-03-04 18:21:00,32.9,23.5,29.93,ESE,121,2.0,2.0,68,0.00,,---,0.00,VWS V14.01,2013-03-05 00:21:00,
2013-03-04 18:25:00,32.9,23.5,29.93,ESE,115,0.0,2.0,68,0.00,,---,0.00,VWS V14.01,2013-03-05 00:25:00,
2013-03-04 18:26:00,32.9,23.5,29.93,ESE,115,0.0,2.0,68,0.00,,---,0.00,VWS V14.01,2013-03-05 00:26:00,
2013-03-04 18:30:00,32.9,23.9,29.93,ESE,118,1.0,2.0,69,0.00,,---,0.00,VWS V14.01,2013-03-05 00:30:00,
2013-03-04 18:31:00,32.9,23.9,29.93,ESE,118,0.0,2.0,69,0.00,,---,0.00,VWS V14.01,2013-03-05 00:31:00,
2013-03-04 18:32:00,32.9,23.9,29.93,SSE,150,0.0,1.0,69,0.00,,---,0.00,VWS V14.01,2013-03-05 00:32:00,
2013-03-04 18:36:00,32.8,23.8,29.93,ESE,122,1.0,3.0,69,0.00,,---,0.00,VWS V14.01,2013-03-05 00:36:00,
2013-03-04 18:37:00,32.8,23.8,29.93,SE,124,1.0,2.0,69,0.00,,---,0.00,VWS V14.01,2013-03-05 00:37:00,
2013-03-04 18:38:00,32.8,23.8,29.93,SE,141,1.0,2.0,69,0.00,,---,0.00,VWS V14.01,2013-03-05 00:38:00,
2013-03-04 18:41:00,32.8,23.8,29.93,SE,142,0.0,0.0,69,0.00,,---,0.00,VWS V14.01,2013-03-05 00:41:00,
2013-03-04 18:42:00,32.7,23.7,29.93,SE,142,0.0,0.0,69,0.00,,---,0.00,VWS V14.01,2013-03-05 00:42:00,
2013-03-04 18:43:00,32.7,23.7,29.93,SE,139,1.0,1.0,69,0.00,,---,0.00,VWS V14.01,2013-03-05 00:43:00,
2013-03-04 18:47:00,32.7,23.7,29.93,East,90,0.0,0.0,69,0.00,,---,0.00,VWS V14.01,2013-03-05 00:47:00,
2013-03-04 18:48:00,32.7,24.0,29.93,East,91,2.0,2.0,70,0.00,,---,0.00,VWS V14.01,2013-03-05 00:48:00,
2013-03-04 18:49:00,32.7,24.0,29.93,ESE,103,1.0,3.0,70,0.00,,---,0.00,VWS V14.01,2013-03-05 00:49:00,
2013-03-04 18:53:00,32.7,24.0,29.93,East,91,2.0,3.0,70,0.00,,---,0.00,VWS V14.01,2013-03-05 00:53:00,
2013-03-04 18:55:00,32.7,23.7,29.93,East,86,1.0,1.0,69,0.00,,---,0.00,VWS V14.01,2013-03-05 00:55:00,
2013-03-04 19:00:00,32.7,23.7,29.94,ESE,102,3.0,3.0,69,0.00,,---,0.00,VWS V14.01,2013-03-05 01:00:00,
2013-03-04 19:01:00,32.7,23.3,29.94,SE,128,1.0,3.0,68,0.00,,---,0.00,VWS V14.01,2013-03-05 01:01:00,
2013-03-04 19:03:00,32.8,23.4,29.94,SE,128,0.0,1.0,68,0.00,,---,0.00,VWS V14.01,2013-03-05 01:03:00,
2013-03-04 19:05:00,32.8,23.4,29.94,SE,127,0.0,0.0,68,0.00,,---,0.00,VWS V14.01,2013-03-05 01:05:00,
2013-03-04 19:06:00,32.8,23.4,29.94,SE,127,0.0,0.0,68,0.00,,---,0.00,VWS V14.01,2013-03-05 01:06:00,
2013-03-04 19:07:00,32.8,23.8,29.94,ENE,76,2.0,2.0,69,0.00,,---,0.00,VWS V14.01,2013-03-05 01:07:00,
2013-03-04 19:10:00,32.8,23.4,29.94,ESE,109,0.0,2.0,68,0.00,,---,0.00,VWS V14.01,2013-03-05 01:10:00,
2013-03-04 19:11:00,32.8,23.8,29.94,ESE,109,0.0,0.0,69,0.00,,---,0.00,VWS V14.01,2013-03-05 01:11:00,
2013-03-04 19:13:00,32.8,23.8,29.94,ESE,109,0.0,0.0,69,0.00,,---,0.00,VWS V14.01,2013-03-05 01:13:00,
2013-03-04 19:16:00,32.8,24.1,29.94,ESE,108,2.0,2.0,70,0.00,,---,0.00,VWS V14.01,2013-03-05 01:16:00,
2013-03-04 19:18:00,32.8,24.1,29.94,East,98,0.0,0.0,70,0.00,,---,0.00,VWS V14.01,2013-03-05 01:18:00,
2013-03-04 19:21:00,32.8,24.1,29.94,East,98,1.0,1.0,70,0.00,,---,0.00,VWS V14.01,2013-03-05 01:21:00,
2013-03-04 19:23:00,32.7,24.0,29.94,East,101,0.0,0.0,70,0.00,,---,0.00,VWS V14.01,2013-03-05 01:23:00,
2013-03-04 19:25:00,32.7,24.0,29.94,East,87,0.0,1.0,70,0.00,,---,0.00,VWS V14.01,2013-03-05 01:25:00,
2013-03-04 19:26:00,32.7,24.0,29.94,East,87,0.0,0.0,70,0.00,,---,0.00,VWS V14.01,2013-03-05 01:26:00,
2013-03-04 19:28:00,32.7,24.0,29.94,East,87,1.0,1.0,70,0.00,,---,0.00,VWS V14.01,2013-03-05 01:28:00,
2013-03-04 19:29:00,32.7,24.0,29.93,East,87,0.0,1.0,70,0.00,,---,0.00,VWS V14.01,2013-03-05 01:29:00,
2013-03-04 19:31:00,32.7,24.4,29.93,East,87,0.0,0.0,71,0.00,,---,0.00,VWS V14.01,2013-03-05 01:31:00,
2013-03-04 19:34:00,32.7,24.4,29.93,East,92,0.0,1.0,71,0.00,,---,0.00,VWS V14.01,2013-03-05 01:34:00,
2013-03-04 19:36:00,32.5,24.2,29.93,East,92,0.0,0.0,71,0.00,,---,0.00,VWS V14.01,2013-03-05 01:36:00,
2013-03-04 19:38:00,32.5,24.2,29.93,East,100,0.0,2.0,71,0.00,,---,0.00,VWS V14.01,2013-03-05 01:38:00,
2013-03-04 19:39:00,32.5,24.2,29.93,East,100,0.0,1.0,71,0.00,,---,0.00,VWS V14.01,2013-03-05 01:39:00,
2013-03-04 19:40:00,32.5,24.2,29.93,East,99,1.0,1.0,71,0.00,,---,0.00,VWS V14.01,2013-03-05 01:40:00,
2013-03-04 19:42:00,32.5,24.2,29.93,East,99,0.0,1.0,71,0.00,,---,0.00,VWS V14.01,2013-03-05 01:42:00,
2013-03-04 19:44:00,32.5,24.2,29.93,East,95,1.0,1.0,71,0.00,,---,0.00,VWS V14.01,2013-03-05 01:44:00,
2013-03-04 19:46:00,32.5,24.2,29.94,SSE,147,0.0,1.0,71,0.00,,---,0.00,VWS V14.01,2013-03-05 01:46:00,
2013-03-04 19:48:00,32.5,24.5,29.94,SE,145,1.0,1.0,72,0.00,,---,0.00,VWS V14.01,2013-03-05 01:48:00,
2013-03-04 19:49:00,32.5,24.5,29.94,SSE,151,0.0,1.0,72,0.00,,---,0.00,VWS V14.01,2013-03-05 01:49:00,
2013-03-04 19:52:00,32.4,24.4,29.94,SSE,151,0.0,2.0,72,0.00,,---,0.00,VWS V14.01,2013-03-05 01:52:00,
2013-03-04 19:53:00,32.4,24.4,29.94,ESE,110,0.0,2.0,72,0.00,,---,0.00,VWS V14.01,2013-03-05 01:53:00,
2013-03-04 19:55:00,32.4,24.4,29.94,ESE,116,1.0,2.0,72,0.00,,---,0.00,VWS V14.01,2013-03-05 01:55:00,
2013-03-04 19:58:00,32.4,24.4,29.94,SE,134,2.0,2.0,72,0.00,,---,0.00,VWS V14.01,2013-03-05 01:58:00,
2013-03-04 20:00:00,32.2,24.5,29.94,SSE,158,1.0,3.0,73,0.00,,---,0.00,VWS V14.01,2013-03-05 02:00:00,
2013-03-04 20:02:00,32.2,24.2,29.94,SE,131,2.0,3.0,72,0.00,,---,0.00,VWS V14.01,2013-03-05 02:02:00,
2013-03-04 20:04:00,32.2,24.5,29.94,SE,129,3.0,3.0,73,0.00,,---,0.00,VWS V14.01,2013-03-05 02:04:00,
2013-03-04 20:05:00,32.2,24.5,29.94,ENE,72,3.0,3.0,73,0.00,,---,0.00,VWS V14.01,2013-03-05 02:05:00,
2013-03-04 20:06:00,32.2,24.5,29.94,East,99,1.0,2.0,73,0.00,,---,0.00,VWS V14.01,2013-03-05 02:06:00,
2013-03-04 20:09:00,32.1,24.4,29.94,SE,146,1.0,3.0,73,0.00,,---,0.00,VWS V14.01,2013-03-05 02:09:00,
2013-03-04 20:10:00,32.1,24.8,29.94,SE,138,0.0,2.0,74,0.00,,---,0.00,VWS V14.01,2013-03-05 02:10:00,
2013-03-04 20:11:00,32.1,24.8,29.94,SSE,164,1.0,1.0,74,0.00,,---,0.00,VWS V14.01,2013-03-05 02:11:00,
2013-03-04 20:12:00,32.1,24.8,29.94,SE,128,2.0,2.0,74,0.00,,---,0.00,VWS V14.01,2013-03-05 02:12:00,
2013-03-04 20:14:00,32.1,25.1,29.94,NE,53,2.0,5.0,75,0.00,,---,0.00,VWS V14.01,2013-03-05 02:14:00,
2013-03-04 20:15:00,31.9,24.9,29.94,SE,131,2.0,3.0,75,0.00,,---,0.00,VWS V14.01,2013-03-05 02:15:00,
2013-03-04 20:17:00,31.9,24.9,29.94,SE,138,4.0,6.0,75,0.00,,---,0.00,VWS V14.01,2013-03-05 02:17:00,
2013-03-04 20:18:00,31.8,25.1,29.94,SSE,148,1.0,2.0,76,0.00,,---,0.00,VWS V14.01,2013-03-05 02:18:00,
2013-03-04 20:19:00,31.8,25.1,29.94,SE,127,1.0,2.0,76,0.00,,---,0.00,VWS V14.01,2013-03-05 02:19:00,
2013-03-04 20:22:00,31.8,25.4,29.94,SSE,151,1.0,2.0,77,0.00,,---,0.00,VWS V14.01,2013-03-05 02:22:00,
2013-03-04 20:23:00,31.8,25.4,29.94,SE,143,2.0,2.0,77,0.00,,---,0.00,VWS V14.01,2013-03-05 02:23:00,
2013-03-04 20:25:00,31.6,25.2,29.94,SE,136,2.0,2.0,77,0.00,,---,0.00,VWS V14.01,2013-03-05 02:25:00,
2013-03-04 20:27:00,31.6,25.5,29.94,SE,127,4.0,4.0,78,0.00,,---,0.00,VWS V14.01,2013-03-05 02:27:00,
2013-03-04 20:29:00,31.6,25.9,29.94,ESE,111,1.0,2.0,79,0.00,,---,0.00,VWS V14.01,2013-03-05 02:29:00,
2013-03-04 20:31:00,31.5,25.8,29.94,East,100,1.0,2.0,79,0.00,,---,0.00,VWS V14.01,2013-03-05 02:31:00,
2013-03-04 20:32:00,31.5,25.8,29.94,East,82,2.0,3.0,79,0.00,,---,0.00,VWS V14.01,2013-03-05 02:32:00,
2013-03-04 20:34:00,31.5,26.0,29.94,SE,139,0.0,1.0,80,0.00,,---,0.00,VWS V14.01,2013-03-05 02:34:00,
2013-03-04 20:36:00,31.3,26.2,29.94,SE,136,0.0,2.0,81,0.00,,---,0.00,VWS V14.01,2013-03-05 02:36:00,
2013-03-04 20:37:00,31.3,26.2,29.94,East,99,1.0,2.0,81,0.00,,---,0.00,VWS V14.01,2013-03-05 02:37:00,
2013-03-04 20:38:00,31.3,26.2,29.94,ESE,122,0.0,2.0,81,0.00,,---,0.00,VWS V14.01,2013-03-05 02:38:00,
2013-03-04 20:41:00,31.2,26.4,29.94,East,90,3.0,3.0,82,0.00,,---,0.00,VWS V14.01,2013-03-05 02:41:00,
2013-03-04 20:42:00,31.2,26.4,29.94,East,81,2.0,3.0,82,0.00,,---,0.00,VWS V14.01,2013-03-05 02:42:00,
2013-03-04 20:43:00,31.2,26.4,29.94,ESE,109,2.0,5.0,82,0.00,,---,0.00,VWS V14.01,2013-03-05 02:43:00,
2013-03-04 20:47:00,31.0,26.5,29.95,South,173,1.0,1.0,83,0.00,,---,0.00,VWS V14.01,2013-03-05 02:47:00,
2013-03-04 20:48:00,30.9,26.6,29.95,SSE,158,1.0,3.0,84,0.00,,---,0.00,VWS V14.01,2013-03-05 02:48:00,
2013-03-04 20:49:00,30.9,26.6,29.95,SE,127,1.0,3.0,84,0.00,,---,0.00,VWS V14.01,2013-03-05 02:49:00,
2013-03-04 20:53:00,30.7,26.7,29.95,SE,129,1.0,2.0,85,0.00,,---,0.00,VWS V14.01,2013-03-05 02:53:00,
2013-03-04 20:54:00,30.7,26.7,29.95,SE,146,0.0,2.0,85,0.00,,---,0.00,VWS V14.01,2013-03-05 02:54:00,
2013-03-04 20:55:00,30.7,26.7,29.95,East,98,2.0,2.0,85,0.00,,---,0.00,VWS V14.01,2013-03-05 02:55:00,
2013-03-04 20:59:00,30.7,27.0,29.95,East,90,1.0,1.0,86,0.00,,---,0.00,VWS V14.01,2013-03-05 02:59:00,
2013-03-04 21:00:00,30.7,27.0,29.95,East,82,0.0,4.0,86,0.00,,---,0.00,VWS V14.01,2013-03-05 03:00:00,
2013-03-04 21:01:00,30.7,27.0,29.95,ENE,72,2.0,2.0,86,0.00,,---,0.00,VWS V14.01,2013-03-05 03:01:00,
2013-03-04 21:03:00,30.7,27.0,29.95,East,94,0.0,0.0,86,0.00,,---,0.00,VWS V14.01,2013-03-05 03:03:00,
2013-03-04 21:06:00,30.6,26.9,29.95,East,93,1.0,3.0,86,0.00,,---,0.00,VWS V14.01,2013-03-05 03:06:00,
2013-03-04 21:07:00,30.6,26.9,29.95,East,82,0.0,1.0,86,0.00,,---,0.00,VWS V14.01,2013-03-05 03:07:00,
2013-03-04 21:09:00,30.6,27.2,29.95,East,98,1.0,2.0,87,0.00,,---,0.00,VWS V14.01,2013-03-05 03:09:00,
2013-03-04 21:11:00,30.6,27.2,29.95,ESE,107,3.0,4.0,87,0.00,,---,0.00,VWS V14.01,2013-03-05 03:11:00,
2013-03-04 21:12:00,30.6,27.2,29.95,ESE,108,1.0,2.0,87,0.00,,---,0.00,VWS V14.01,2013-03-05 03:12:00,
2013-03-04 21:14:00,30.6,27.2,29.95,ESE,118,0.0,2.0,87,0.00,,---,0.00,VWS V14.01,2013-03-05 03:14:00,
2013-03-04 21:16:00,30.6,27.2,29.95,ESE,117,4.0,4.0,87,0.00,,---,0.00,VWS V14.01,2013-03-05 03:16:00,
2013-03-04 21:17:00,30.6,27.2,29.95,ESE,118,1.0,1.0,87,0.00,,---,0.00,VWS V14.01,2013-03-05 03:17:00,
2013-03-04 21:19:00,30.4,27.3,29.95,SE,127,2.0,2.0,88,0.00,,---,0.00,VWS V14.01,2013-03-05 03:19:00,
2013-03-04 21:21:00,30.4,27.3,29.95,East,85,0.0,3.0,88,0.00,,---,0.00,VWS V14.01,2013-03-05 03:21:00,
2013-03-04 21:23:00,30.4,27.3,29.95,ESE,111,3.0,4.0,88,0.00,,---,0.00,VWS V14.01,2013-03-05 03:23:00,
2013-03-04 21:24:00,30.4,27.3,29.95,SE,124,2.0,2.0,88,0.00,,---,0.00,VWS V14.01,2013-03-05 03:24:00,
2013-03-04 21:27:00,30.4,27.3,29.95,ESE,122,3.0,3.0,88,0.00,,---,0.00,VWS V14.01,2013-03-05 03:27:00,
2013-03-04 21:28:00,30.4,27.3,29.95,East,98,3.0,3.0,88,0.00,,---,0.00,VWS V14.01,2013-03-05 03:28:00,
2013-03-04 21:29:00,30.4,27.3,29.95,East,96,2.0,3.0,88,0.00,,---,0.00,VWS V14.01,2013-03-05 03:29:00,
2013-03-04 21:30:00,30.4,27.3,29.95,SE,136,1.0,3.0,88,0.00,,---,0.00,VWS V14.01,2013-03-05 03:30:00,
2013-03-04 21:32:00,30.4,27.5,29.95,East,95,3.0,5.0,89,0.00,,---,0.00,VWS V14.01,2013-03-05 03:32:00,
2013-03-04 21:33:00,30.4,27.5,29.95,ESE,107,3.0,5.0,89,0.00,,---,0.00,VWS V14.01,2013-03-05 03:33:00,
2013-03-04 21:34:00,30.3,27.5,29.95,East,91,3.0,3.0,89,0.00,,---,0.00,VWS V14.01,2013-03-05 03:34:00,
2013-03-04 21:35:00,30.4,27.5,29.95,ESE,103,4.0,4.0,89,0.00,,---,0.00,VWS V14.01,2013-03-05 03:35:00,
2013-03-04 21:39:00,30.3,27.5,29.95,East,100,1.0,4.0,89,0.00,,---,0.00,VWS V14.01,2013-03-05 03:39:00,
2013-03-04 21:40:00,30.3,27.5,29.95,ESE,103,3.0,3.0,89,0.00,,---,0.00,VWS V14.01,2013-03-05 03:40:00,
2013-03-04 21:41:00,30.3,27.5,29.95,ENE,74,2.0,5.0,89,0.00,,---,0.00,VWS V14.01,2013-03-05 03:41:00,
2013-03-04 21:43:00,30.3,27.5,29.95,East,79,1.0,3.0,89,0.00,,---,0.00,VWS V14.01,2013-03-05 03:43:00,
2013-03-04 21:44:00,30.3,27.5,29.95,ESE,102,2.0,3.0,89,0.00,,---,0.00,VWS V14.01,2013-03-05 03:44:00,
2013-03-04 21:47:00,30.3,27.5,29.95,ESE,112,2.0,4.0,89,0.00,,---,0.00,VWS V14.01,2013-03-05 03:47:00,
2013-03-04 21:48:00,30.3,27.5,29.95,East,101,3.0,3.0,89,0.00,,---,0.00,VWS V14.01,2013-03-05 03:48:00,
2013-03-04 21:51:00,30.3,27.5,29.95,SE,135,3.0,4.0,89,0.00,,---,0.00,VWS V14.01,2013-03-05 03:51:00,
2013-03-04 21:52:00,30.3,27.5,29.95,ESE,106,3.0,3.0,89,0.00,,---,0.00,VWS V14.01,2013-03-05 03:52:00,
2013-03-04 21:53:00,30.3,27.5,29.95,East,100,2.0,2.0,89,0.00,,---,0.00,VWS V14.01,2013-03-05 03:53:00,
2013-03-04 21:55:00,30.3,27.5,29.95,SE,143,1.0,1.0,89,0.00,,---,0.00,VWS V14.01,2013-03-05 03:55:00,
2013-03-04 21:57:00,30.3,27.7,29.95,East,91,2.0,4.0,90,0.00,,---,0.00,VWS V14.01,2013-03-05 03:57:00,
2013-03-04 21:58:00,30.3,27.7,29.95,East,86,3.0,4.0,90,0.00,,---,0.00,VWS V14.01,2013-03-05 03:58:00,
2013-03-04 22:00:00,30.3,27.7,29.93,ESE,108,2.0,3.0,90,0.00,,---,0.00,VWS V14.01,2013-03-05 04:00:00,
2013-03-04 22:02:00,30.3,27.7,29.93,East,80,4.0,4.0,90,0.00,,---,0.00,VWS V14.01,2013-03-05 04:02:00,
2013-03-04 22:04:00,30.3,27.7,29.93,ESE,110,3.0,5.0,90,0.00,,---,0.00,VWS V14.01,2013-03-05 04:04:00,
2013-03-04 22:05:00,30.3,27.7,29.93,SE,127,1.0,2.0,90,0.00,,---,0.00,VWS V14.01,2013-03-05 04:05:00,
2013-03-04 22:09:00,30.3,27.7,29.93,ESE,115,1.0,2.0,90,0.00,,---,0.00,VWS V14.01,2013-03-05 04:09:00,
2013-03-04 22:10:00,30.3,27.7,29.93,East,98,2.0,5.0,90,0.00,,---,0.00,VWS V14.01,2013-03-05 04:10:00,
2013-03-04 22:12:00,30.3,27.7,29.93,East,96,2.0,5.0,90,0.00,,---,0.00,VWS V14.01,2013-03-05 04:12:00,
2013-03-04 22:15:00,30.3,27.7,29.92,East,91,1.0,5.0,90,0.00,,---,0.00,VWS V14.01,2013-03-05 04:15:00,
2013-03-04 22:16:00,30.3,27.7,29.92,SSE,160,1.0,1.0,90,0.00,,---,0.00,VWS V14.01,2013-03-05 04:16:00,
2013-03-04 22:19:00,30.1,27.5,29.92,East,96,2.0,2.0,90,0.00,,---,0.00,VWS V14.01,2013-03-05 04:19:00,
2013-03-04 22:20:00,30.3,27.7,29.92,East,100,3.0,5.0,90,0.00,,---,0.00,VWS V14.01,2013-03-05 04:20:00,
2013-03-04 22:21:00,30.3,27.7,29.92,SE,141,3.0,3.0,90,0.00,,---,0.00,VWS V14.01,2013-03-05 04:21:00,
2013-03-04 22:22:00,30.3,27.7,29.92,ESE,122,3.0,4.0,90,0.00,,---,0.00,VWS V14.01,2013-03-05 04:22:00,
2013-03-04 22:24:00,30.3,27.7,29.92,SE,126,2.0,4.0,90,0.00,,---,0.00,VWS V14.01,2013-03-05 04:24:00,
2013-03-04 22:25:00,30.3,27.7,29.92,East,100,2.0,2.0,90,0.00,,---,0.00,VWS V14.01,2013-03-05 04:25:00,
2013-03-04 22:26:00,30.3,28.0,29.92,SSE,162,2.0,2.0,91,0.00,,---,0.00,VWS V14.01,2013-03-05 04:26:00,
2013-03-04 22:27:00,30.3,28.0,29.92,ESE,110,2.0,4.0,91,0.00,,---,0.00,VWS V14.01,2013-03-05 04:27:00,
2013-03-04 22:30:00,30.3,28.0,29.92,ESE,110,3.0,3.0,91,0.00,,---,0.00,VWS V14.01,2013-03-05 04:30:00,
2013-03-04 22:31:00,30.3,28.0,29.92,ESE,122,2.0,4.0,91,0.00,,---,0.00,VWS V14.01,2013-03-05 04:31:00,
2013-03-04 22:32:00,30.3,28.0,29.92,ESE,108,5.0,5.0,91,0.00,,---,0.00,VWS V14.01,2013-03-05 04:32:00,
2013-03-04 22:33:00,30.3,28.0,29.92,East,86,2.0,5.0,91,0.00,,---,0.00,VWS V14.01,2013-03-05 04:33:00,
2013-03-04 22:36:00,30.3,28.0,29.92,East,93,3.0,4.0,91,0.00,,---,0.00,VWS V14.01,2013-03-05 04:36:00,
2013-03-04 22:37:00,30.3,28.0,29.92,East,79,2.0,2.0,91,0.00,,---,0.00,VWS V14.01,2013-03-05 04:37:00,
2013-03-04 22:39:00,30.3,28.0,29.92,East,94,1.0,4.0,91,0.00,,---,0.00,VWS V14.01,2013-03-05 04:39:00,
2013-03-04 22:41:00,30.3,28.0,29.92,ESE,108,0.0,2.0,91,0.00,,---,0.00,VWS V14.01,2013-03-05 04:41:00,
2013-03-04 22:42:00,30.3,28.0,29.92,East,87,2.0,4.0,91,0.00,,---,0.00,VWS V14.01,2013-03-05 04:42:00,
2013-03-04 22:43:00,30.4,28.1,29.92,SE,136,1.0,4.0,91,0.00,,---,0.00,VWS V14.01,2013-03-05 04:43:00,
2013-03-04 22:44:00,30.4,28.1,29.92,ENE,75,2.0,4.0,91,0.00,,---,0.00,VWS V14.01,2013-03-05 04:44:00,
2013-03-04 22:48:00,30.4,28.1,29.92,SE,131,3.0,5.0,91,0.00,,---,0.00,VWS V14.01,2013-03-05 04:48:00,
2013-03-04 22:49:00,30.4,28.1,29.92,ESE,108,2.0,2.0,91,0.00,,---,0.00,VWS V14.01,2013-03-05 04:49:00,
2013-03-04 22:50:00,30.4,28.1,29.92,ESE,122,0.0,1.0,91,0.00,,---,0.00,VWS V14.01,2013-03-05 04:50:00,
2013-03-04 22:53:00,30.4,28.1,29.92,East,89,1.0,3.0,91,0.00,,---,0.00,VWS V14.01,2013-03-05 04:53:00,
2013-03-04 22:54:00,30.4,28.1,29.92,East,86,1.0,3.0,91,0.00,,---,0.00,VWS V14.01,2013-03-05 04:54:00,
2013-03-04 22:55:00,30.4,28.1,29.92,ESE,113,2.0,3.0,91,0.00,,---,0.00,VWS V14.01,2013-03-05 04:55:00,
2013-03-04 22:58:00,30.4,28.1,29.92,ESE,106,2.0,3.0,91,0.00,,---,0.00,VWS V14.01,2013-03-05 04:58:00,
2013-03-04 22:59:00,30.4,28.1,29.92,East,91,1.0,5.0,91,0.00,,---,0.00,VWS V14.01,2013-03-05 04:59:00,
2013-03-04 23:00:00,30.4,28.1,29.92,SE,129,2.0,2.0,91,0.00,,---,0.00,VWS V14.01,2013-03-05 05:00:00,
2013-03-04 23:01:00,30.4,28.1,29.92,East,99,3.0,5.0,91,0.00,,---,0.00,VWS V14.01,2013-03-05 05:01:00,
2013-03-04 23:02:00,30.4,28.1,29.92,ENE,65,0.0,2.0,91,0.00,,---,0.00,VWS V14.01,2013-03-05 05:02:00,
2013-03-04 23:03:00,30.4,28.1,29.92,ESE,105,2.0,3.0,91,0.00,,---,0.00,VWS V14.01,2013-03-05 05:03:00,
2013-03-04 23:07:00,30.4,28.1,29.92,SE,126,0.0,0.0,91,0.00,,---,0.00,VWS V14.01,2013-03-05 05:07:00,
2013-03-04 23:08:00,30.4,28.1,29.92,ESE,121,1.0,2.0,91,0.00,,---,0.00,VWS V14.01,2013-03-05 05:08:00,
2013-03-04 23:09:00,30.4,28.1,29.92,SE,131,3.0,3.0,91,0.00,,---,0.00,VWS V14.01,2013-03-05 05:09:00,
2013-03-04 23:12:00,30.3,28.0,29.92,East,94,1.0,3.0,91,0.00,,---,0.00,VWS V14.01,2013-03-05 05:12:00,
2013-03-04 23:13:00,30.3,28.0,29.92,SE,127,3.0,4.0,91,0.00,,---,0.00,VWS V14.01,2013-03-05 05:13:00,
2013-03-04 23:17:00,30.3,28.0,29.91,East,91,2.0,3.0,91,0.00,,---,0.00,VWS V14.01,2013-03-05 05:17:00,
2013-03-04 23:18:00,30.3,28.0,29.91,ESE,109,1.0,2.0,91,0.00,,---,0.00,VWS V14.01,2013-03-05 05:18:00,
2013-03-04 23:22:00,30.3,28.3,29.91,East,101,1.0,3.0,92,0.00,,---,0.00,VWS V14.01,2013-03-05 05:22:00,
2013-03-04 23:23:00,30.3,28.3,29.91,East,101,0.0,1.0,92,0.00,,---,0.00,VWS V14.01,2013-03-05 05:23:00,
2013-03-04 23:26:00,30.3,28.3,29.91,East,93,1.0,2.0,92,0.00,,---,0.00,VWS V14.01,2013-03-05 05:26:00,
2013-03-04 23:28:00,30.3,28.3,29.91,ESE,103,1.0,1.0,92,0.00,,---,0.00,VWS V14.01,2013-03-05 05:28:00,
2013-03-04 23:29:00,30.3,28.3,29.91,SE,125,2.0,2.0,92,0.00,,---,0.00,VWS V14.01,2013-03-05 05:29:00,
2013-03-04 23:31:00,30.3,28.3,29.90,SE,124,1.0,1.0,92,0.00,,---,0.00,VWS V14.01,2013-03-05 05:31:00,
2013-03-04 23:33:00,30.3,28.3,29.90,East,82,0.0,1.0,92,0.00,,---,0.00,VWS V14.01,2013-03-05 05:33:00,
2013-03-04 23:35:00,30.3,28.3,29.90,East,92,0.0,3.0,92,0.00,,---,0.00,VWS V14.01,2013-03-05 05:35:00,
2013-03-04 23:38:00,30.3,28.3,29.90,ESE,120,1.0,3.0,92,0.00,,---,0.00,VWS V14.01,2013-03-05 05:38:00,
2013-03-04 23:40:00,30.3,28.3,29.90,ESE,113,2.0,2.0,92,0.00,,---,0.00,VWS V14.01,2013-03-05 05:40:00,
2013-03-04 23:41:00,30.3,28.3,29.90,East,79,2.0,2.0,92,0.00,,---,0.00,VWS V14.01,2013-03-05 05:41:00,
2013-03-04 23:44:00,30.3,28.3,29.90,ESE,120,0.0,3.0,92,0.00,,---,0.00,VWS V14.01,2013-03-05 05:44:00,
2013-03-04 23:45:00,30.3,28.3,29.90,SE,138,0.0,1.0,92,0.00,,---,0.00,VWS V14.01,2013-03-05 05:45:00,
2013-03-04 23:46:00,30.3,28.3,29.90,ESE,104,2.0,2.0,92,0.00,,---,0.00,VWS V14.01,2013-03-05 05:46:00,
2013-03-04 23:47:00,30.3,28.3,29.90,East,98,0.0,1.0,92,0.00,,---,0.00,VWS V14.01,2013-03-05 05:47:00,
2013-03-04 23:50:00,30.3,28.3,29.90,ESE,105,3.0,3.0,92,0.00,,---,0.00,VWS V14.01,2013-03-05 05:50:00,
2013-03-04 23:51:00,30.3,28.3,29.90,East,88,2.0,3.0,92,0.00,,---,0.00,VWS V14.01,2013-03-05 05:51:00,
2013-03-04 23:55:00,30.3,28.3,29.90,ESE,107,0.0,3.0,92,0.00,,---,0.00,VWS V14.01,2013-03-05 05:55:00,
2013-03-04 23:56:00,30.3,28.3,29.90,ESE,115,1.0,3.0,92,0.00,,---,0.00,VWS V14.01,2013-03-05 05:56:00,
2013-03-04 23:57:00,30.3,28.3,29.90,ESE,118,1.0,2.0,92,0.00,,---,0.00,VWS V14.01,2013-03-05 05:57:00,
2013-03-04 23:59:00,30.3,28.3,29.89,ESE,106,0.0,1.0,92,0.00,,---,0.00,VWS V14.01,2013-03-05 05:59:00,